Wetterdaten: Samstag, 30.08.2014
Datum Zeit Temp. Aussen +5cm Feuchte Auss Luftdruck Regen Sonnenschein Regendauer UV Solar Windben
30.08.2014 00:00 16,9 C 15,0 C 84 % 1016,3 hPa 0,0 l/m 0 min 0 min 0,0 UV-I 0 W/m 17,7 km/h (3 Bft)
30.08.2014 00:02 16,8 C 15,0 C 84 % 1016,3 hPa 0,0 l/m 0 min 0 min 0,0 UV-I 0 W/m 17,7 km/h (3 Bft)
30.08.2014 00:05 16,8 C 15,0 C 84 % 1016,2 hPa 0,0 l/m 0 min 0 min 0,0 UV-I 0 W/m 17,7 km/h (3 Bft)
30.08.2014 00:06 16,8 C 15,0 C 84 % 1016,2 hPa 0,0 l/m 0 min 0 min 0,0 UV-I 0 W/m 14,2 km/h (3 Bft)
30.08.2014 00:08 16,8 C 15,0 C 84 % 1016,3 hPa 0,0 l/m 0 min 0 min 0,0 UV-I 0 W/m 24,7 km/h (4 Bft)
30.08.2014 00:10 16,8 C 15,0 C 84 % 1016,2 hPa 0,0 l/m 0 min 0 min 0,0 UV-I 0 W/m 24,7 km/h (4 Bft)
30.08.2014 00:12 16,8 C 14,4 C 84 % 1016,3 hPa 0,0 l/m 0 min 0 min 0,0 UV-I 0 W/m 17,7 km/h (3 Bft)
30.08.2014 00:14 16,7 C 14,4 C 84 % 1016,2 hPa 0,0 l/m 0 min 0 min 0,0 UV-I 0 W/m 21,3 km/h (4 Bft)
30.08.2014 00:16 16,7 C 14,4 C 84 % 1016,2 hPa 0,0 l/m 0 min 0 min 0,0 UV-I 0 W/m 21,3 km/h (4 Bft)
30.08.2014 00:18 16,7 C 14,4 C 84 % 1016,3 hPa 0,0 l/m 0 min 0 min 0,0 UV-I 0 W/m 24,7 km/h (4 Bft)
30.08.2014 00:20 16,7 C 14,4 C 85 % 1016,3 hPa 0,0 l/m 0 min 0 min 0,0 UV-I 0 W/m 17,7 km/h (3 Bft)
30.08.2014 00:22 16,6 C 14,4 C 85 % 1016,2 hPa 0,0 l/m 0 min 0 min 0,0 UV-I 0 W/m 14,2 km/h (3 Bft)
30.08.2014 00:24 16,6 C 14,4 C 85 % 1016,2 hPa 0,0 l/m 0 min 0 min 0,0 UV-I 0 W/m 14,2 km/h (3 Bft)
30.08.2014 00:26 16,6 C 14,4 C 85 % 1016,3 hPa 0,0 l/m 0 min 0 min 0,0 UV-I 0 W/m 17,7 km/h (3 Bft)
30.08.2014 00:28 16,5 C 14,4 C 85 % 1016,2 hPa 0,0 l/m 0 min 0 min 0,0 UV-I 0 W/m 24,7 km/h (4 Bft)
30.08.2014 00:30 16,5 C 14,4 C 85 % 1016,2 hPa 0,0 l/m 0 min 0 min 0,0 UV-I 0 W/m 24,7 km/h (4 Bft)
30.08.2014 00:32 16,4 C 14,4 C 85 % 1016,2 hPa 0,0 l/m 0 min 0 min 0,0 UV-I 0 W/m 17,7 km/h (3 Bft)
30.08.2014 00:34 16,4 C 14,4 C 85 % 1016,2 hPa 0,0 l/m 0 min 0 min 0,0 UV-I 0 W/m 10,7 km/h (2 Bft)
30.08.2014 00:36 16,4 C 14,4 C 85 % 1016,2 hPa 0,0 l/m 0 min 0 min 0,0 UV-I 0 W/m 17,7 km/h (3 Bft)
30.08.2014 00:38 16,3 C 14,4 C 85 % 1016,2 hPa 0,0 l/m 0 min 0 min 0,0 UV-I 0 W/m 31,7 km/h (5 Bft)
30.08.2014 00:40 16,3 C 14,4 C 85 % 1016,2 hPa 0,0 l/m 0 min 0 min 0,0 UV-I 0 W/m 21,3 km/h (4 Bft)
30.08.2014 00:42 16,3 C 14,4 C 85 % 1016,3 hPa 0,0 l/m 0 min 0 min 0,0 UV-I 0 W/m 21,3 km/h (4 Bft)
30.08.2014 00:44 16,3 C 14,4 C 85 % 1016,2 hPa 0,0 l/m 0 min 0 min 0,0 UV-I 0 W/m 17,7 km/h (3 Bft)
30.08.2014 00:46 16,2 C 14,4 C 85 % 1016,3 hPa 0,0 l/m 0 min 0 min 0,0 UV-I 0 W/m 28,2 km/h (4 Bft)
30.08.2014 00:48 16,2 C 14,4 C 85 % 1016,2 hPa 0,0 l/m 0 min 0 min 0,0 UV-I 0 W/m 21,3 km/h (4 Bft)
30.08.2014 00:50 16,2 C 14,4 C 85 % 1016,3 hPa 0,0 l/m 0 min 0 min 0,0 UV-I 0 W/m 17,7 km/h (3 Bft)
30.08.2014 00:52 16,2 C 14,4 C 86 % 1016,2 hPa 0,0 l/m 0 min 0 min 0,0 UV-I 0 W/m 21,3 km/h (4 Bft)
30.08.2014 00:54 16,2 C 14,4 C 86 % 1016,2 hPa 0,0 l/m 0 min 0 min 0,0 UV-I 0 W/m 24,7 km/h (4 Bft)
30.08.2014 00:56 16,1 C 14,4 C 86 % 1016,2 hPa 0,0 l/m 0 min 0 min 0,0 UV-I 0 W/m 21,3 km/h (4 Bft)
30.08.2014 00:58 16,1 C 14,4 C 85 % 1016,2 hPa 0,0 l/m 0 min 0 min 0,0 UV-I 0 W/m 14,2 km/h (3 Bft)
30.08.2014 01:00 16,1 C 14,4 C 86 % 1016,3 hPa 0,0 l/m 0 min 0 min 0,0 UV-I 0 W/m 17,7 km/h (3 Bft)
30.08.2014 01:02 16,1 C 14,4 C 86 % 1016,3 hPa 0,0 l/m 0 min 0 min 0,0 UV-I 0 W/m 14,2 km/h (3 Bft)
30.08.2014 01:04 16,1 C 14,4 C 86 % 1016,3 hPa 0,0 l/m 0 min 0 min 0,0 UV-I 0 W/m 17,7 km/h (3 Bft)
30.08.2014 01:06 16,1 C 14,4 C 86 % 1016,3 hPa 0,0 l/m 0 min 0 min 0,0 UV-I 0 W/m 17,7 km/h (3 Bft)
30.08.2014 01:08 16,1 C 14,4 C 86 % 1016,3 hPa 0,0 l/m 0 min 0 min 0,0 UV-I 0 W/m 17,7 km/h (3 Bft)
30.08.2014 01:10 16,0 C 13,9 C 86 % 1016,3 hPa 0,0 l/m 0 min 0 min 0,0 UV-I 0 W/m 14,2 km/h (3 Bft)
30.08.2014 01:12 16,0 C 13,9 C 86 % 1016,3 hPa 0,0 l/m 0 min 0 min 0,0 UV-I 0 W/m 21,3 km/h (4 Bft)
30.08.2014 01:14 16,0 C 13,9 C 86 % 1016,3 hPa 0,0 l/m 0 min 0 min 0,0 UV-I 0 W/m 17,7 km/h (3 Bft)
30.08.2014 01:16 16,0 C 13,9 C 86 % 1016,2 hPa 0,0 l/m 0 min 0 min 0,0 UV-I 0 W/m 21,3 km/h (4 Bft)
30.08.2014 01:18 15,9 C 13,9 C 86 % 1016,3 hPa 0,0 l/m 0 min 0 min 0,0 UV-I 0 W/m 14,2 km/h (3 Bft)
30.08.2014 01:20 15,9 C 13,9 C 86 % 1016,3 hPa 0,0 l/m 0 min 0 min 0,0 UV-I 0 W/m 10,7 km/h (2 Bft)
30.08.2014 01:22 15,9 C 13,9 C 86 % 1016,3 hPa 0,0 l/m 0 min 0 min 0,0 UV-I 0 W/m 21,3 km/h (4 Bft)
30.08.2014 01:24 15,9 C 13,9 C 86 % 1016,3 hPa 0,0 l/m 0 min 0 min 0,0 UV-I 0 W/m 17,7 km/h (3 Bft)
30.08.2014 01:26 15,9 C 13,9 C 86 % 1016,3 hPa 0,0 l/m 0 min 0 min 0,0 UV-I 0 W/m 17,7 km/h (3 Bft)
30.08.2014 01:28 15,8 C 13,9 C 86 % 1016,3 hPa 0,0 l/m 0 min 0 min 0,0 UV-I 0 W/m 17,7 km/h (3 Bft)
30.08.2014 01:30 15,8 C 13,9 C 86 % 1016,4 hPa 0,0 l/m 0 min 0 min 0,0 UV-I 0 W/m 10,7 km/h (2 Bft)
30.08.2014 01:32 15,8 C 13,9 C 86 % 1016,4 hPa 0,0 l/m 0 min 0 min 0,0 UV-I 0 W/m 10,7 km/h (2 Bft)
30.08.2014 01:34 15,8 C 13,9 C 86 % 1016,4 hPa 0,0 l/m 0 min 0 min 0,0 UV-I 0 W/m 17,7 km/h (3 Bft)
30.08.2014 01:36 15,7 C 13,9 C 86 % 1016,3 hPa 0,0 l/m 0 min 0 min 0,0 UV-I 0 W/m 10,7 km/h (2 Bft)
30.08.2014 01:38 15,7 C 13,9 C 86 % 1016,4 hPa 0,0 l/m 0 min 0 min 0,0 UV-I 0 W/m 14,2 km/h (3 Bft)
30.08.2014 01:40 15,7 C 13,9 C 87 % 1016,3 hPa 0,0 l/m 0 min 0 min 0,0 UV-I 0 W/m 3,5 km/h (1 Bft)
30.08.2014 01:42 15,7 C 13,9 C 87 % 1016,4 hPa 0,0 l/m 0 min 0 min 0,0 UV-I 0 W/m 3,5 km/h (1 Bft)
30.08.2014 01:44 15,7 C 13,9 C 87 % 1016,4 hPa 0,0 l/m 0 min 0 min 0,0 UV-I 0 W/m 17,7 km/h (3 Bft)
30.08.2014 01:46 15,7 C 13,9 C 87 % 1016,3 hPa 0,0 l/m 0 min 0 min 0,0 UV-I 0 W/m 7,1 km/h (2 Bft)
30.08.2014 01:48 15,6 C 13,9 C 87 % 1016,3 hPa 0,0 l/m 0 min 0 min 0,0 UV-I 0 W/m 14,2 km/h (3 Bft)
30.08.2014 01:50 15,6 C 13,9 C 87 % 1016,3 hPa 0,0 l/m 0 min 0 min 0,0 UV-I 0 W/m 14,2 km/h (3 Bft)
30.08.2014 01:52 15,6 C 13,9 C 87 % 1016,3 hPa 0,0 l/m 0 min 0 min 0,0 UV-I 0 W/m 21,3 km/h (4 Bft)
30.08.2014 01:54 15,6 C 13,9 C 88 % 1016,3 hPa 0,0 l/m 0 min 0 min 0,0 UV-I 0 W/m 24,7 km/h (4 Bft)
30.08.2014 01:56 15,6 C 13,9 C 88 % 1016,3 hPa 0,0 l/m 0 min 0 min 0,0 UV-I 0 W/m 28,2 km/h (4 Bft)
30.08.2014 01:58 15,5 C 13,9 C 88 % 1016,3 hPa 0,0 l/m 0 min 0 min 0,0 UV-I 0 W/m 17,7 km/h (3 Bft)
30.08.2014 02:00 15,5 C 13,9 C 88 % 1016,3 hPa 0,0 l/m 0 min 0 min 0,0 UV-I 0 W/m 24,7 km/h (4 Bft)
30.08.2014 02:02 15,5 C 13,9 C 88 % 1016,3 hPa 0,0 l/m 0 min 0 min 0,0 UV-I 0 W/m 24,7 km/h (4 Bft)
30.08.2014 02:04 15,5 C 13,9 C 88 % 1016,3 hPa 0,0 l/m 0 min 0 min 0,0 UV-I 0 W/m 17,7 km/h (3 Bft)
30.08.2014 02:06 15,5 C 13,9 C 88 % 1016,2 hPa 0,0 l/m 0 min 0 min 0,0 UV-I 0 W/m 21,3 km/h (4 Bft)
30.08.2014 02:08 15,5 C 13,9 C 88 % 1016,3 hPa 0,0 l/m 0 min 0 min 0,0 UV-I 0 W/m 21,3 km/h (4 Bft)
30.08.2014 02:10 15,5 C 14,4 C 88 % 1016,3 hPa 0,0 l/m 0 min 0 min 0,0 UV-I 0 W/m 21,3 km/h (4 Bft)
30.08.2014 02:12 15,4 C 14,4 C 89 % 1016,3 hPa 0,0 l/m 0 min 0 min 0,0 UV-I 0 W/m 35,4 km/h (5 Bft)
30.08.2014 02:14 15,5 C 14,4 C 89 % 1016,2 hPa 0,0 l/m 0 min 0 min 0,0 UV-I 0 W/m 24,7 km/h (4 Bft)
30.08.2014 02:16 15,5 C 14,4 C 89 % 1016,3 hPa 0,0 l/m 0 min 0 min 0,0 UV-I 0 W/m 35,4 km/h (5 Bft)
30.08.2014 02:18 15,5 C 14,4 C 89 % 1016,3 hPa 0,0 l/m 0 min 0 min 0,0 UV-I 0 W/m 28,2 km/h (4 Bft)
30.08.2014 02:20 15,5 C 14,4 C 89 % 1016,3 hPa 0,0 l/m 0 min 0 min 0,0 UV-I 0 W/m 17,7 km/h (3 Bft)
30.08.2014 02:22 15,5 C 14,4 C 89 % 1016,2 hPa 0,0 l/m 0 min 0 min 0,0 UV-I 0 W/m 21,3 km/h (4 Bft)
30.08.2014 02:24 15,6 C 14,4 C 89 % 1016,2 hPa 0,0 l/m 0 min 0 min 0,0 UV-I 0 W/m 24,7 km/h (4 Bft)
30.08.2014 02:26 15,6 C 14,4 C 89 % 1016,2 hPa 0,0 l/m 0 min 0 min 0,0 UV-I 0 W/m 17,7 km/h (3 Bft)
30.08.2014 02:28 15,6 C 14,4 C 89 % 1016,2 hPa 0,0 l/m 0 min 0 min 0,0 UV-I 0 W/m 24,7 km/h (4 Bft)
30.08.2014 02:30 15,6 C 14,4 C 89 % 1016,2 hPa 0,0 l/m 0 min 0 min 0,0 UV-I 0 W/m 24,7 km/h (4 Bft)
30.08.2014 02:32 15,6 C 14,4 C 88 % 1016,2 hPa 0,0 l/m 0 min 0 min 0,0 UV-I 0 W/m 24,7 km/h (4 Bft)
30.08.2014 02:34 15,6 C 14,4 C 88 % 1016,1 hPa 0,0 l/m 0 min 0 min 0,0 UV-I 0 W/m 21,3 km/h (4 Bft)
30.08.2014 02:36 15,6 C 14,4 C 88 % 1016,2 hPa 0,0 l/m 0 min 0 min 0,0 UV-I 0 W/m 17,7 km/h (3 Bft)
30.08.2014 02:38 15,7 C 14,4 C 88 % 1016,2 hPa 0,0 l/m 0 min 0 min 0,0 UV-I 0 W/m 35,4 km/h (5 Bft)
30.08.2014 02:40 15,7 C 14,4 C 88 % 1016,2 hPa 0,0 l/m 0 min 0 min 0,0 UV-I 0 W/m 35,4 km/h (5 Bft)
30.08.2014 02:42 15,7 C 14,4 C 88 % 1016,1 hPa 0,0 l/m 0 min 0 min 0,0 UV-I 0 W/m 21,3 km/h (4 Bft)
30.08.2014 02:44 15,7 C 14,4 C 88 % 1016,1 hPa 0,0 l/m 0 min 0 min 0,0 UV-I 0 W/m 38,9 km/h (6 Bft)
30.08.2014 02:46 15,7 C 14,4 C 88 % 1016,2 hPa 0,0 l/m 0 min 0 min 0,0 UV-I 0 W/m 28,2 km/h (4 Bft)
30.08.2014 02:48 15,7 C 14,4 C 88 % 1016,1 hPa 0,0 l/m 0 min 0 min 0,0 UV-I 0 W/m 24,7 km/h (4 Bft)
30.08.2014 02:50 15,7 C 14,4 C 88 % 1016,1 hPa 0,0 l/m 0 min 0 min 0,0 UV-I 0 W/m 35,4 km/h (5 Bft)
30.08.2014 02:52 15,8 C 14,4 C 88 % 1016,2 hPa 0,0 l/m 0 min 0 min 0,0 UV-I 0 W/m 28,2 km/h (4 Bft)
30.08.2014 02:54 15,8 C 14,4 C 88 % 1016,1 hPa 0,0 l/m 0 min 0 min 0,0 UV-I 0 W/m 21,3 km/h (4 Bft)
30.08.2014 02:56 15,8 C 14,4 C 88 % 1016,1 hPa 0,0 l/m 0 min 0 min 0,0 UV-I 0 W/m 31,7 km/h (5 Bft)
30.08.2014 02:58 15,8 C 14,4 C 87 % 1016,1 hPa 0,0 l/m 0 min 0 min 0,0 UV-I 0 W/m 28,2 km/h (4 Bft)
30.08.2014 03:00 15,8 C 14,4 C 87 % 1016,1 hPa 0,0 l/m 0 min 0 min 0,0 UV-I 0 W/m 24,7 km/h (4 Bft)
30.08.2014 03:02 15,8 C 14,4 C 87 % 1016,2 hPa 0,0 l/m 0 min 0 min 0,0 UV-I 0 W/m 31,7 km/h (5 Bft)
30.08.2014 03:04 15,8 C 14,4 C 87 % 1016,1 hPa 0,0 l/m 0 min 0 min 0,0 UV-I 0 W/m 38,9 km/h (6 Bft)
30.08.2014 03:06 15,8 C 14,4 C 87 % 1016,1 hPa 0,0 l/m 0 min 0 min 0,0 UV-I 0 W/m 35,4 km/h (5 Bft)
30.08.2014 03:08 15,8 C 14,4 C 87 % 1016,1 hPa 0,0 l/m 0 min 0 min 0,0 UV-I 0 W/m 35,4 km/h (5 Bft)
30.08.2014 03:10 15,8 C 14,4 C 87 % 1016,1 hPa 0,0 l/m 0 min 0 min 0,0 UV-I 0 W/m 35,4 km/h (5 Bft)
30.08.2014 03:12 15,8 C 14,4 C 87 % 1016,1 hPa 0,0 l/m 0 min 0 min 0,0 UV-I 0 W/m 35,4 km/h (5 Bft)
30.08.2014 03:14 15,9 C 14,4 C 87 % 1016,1 hPa 0,0 l/m 0 min 0 min 0,0 UV-I 0 W/m 31,7 km/h (5 Bft)
30.08.2014 03:16 15,9 C 14,4 C 87 % 1016,1 hPa 0,0 l/m 0 min 0 min 0,0 UV-I 0 W/m 35,4 km/h (5 Bft)
30.08.2014 03:18 15,9 C 14,4 C 87 % 1016,1 hPa 0,0 l/m 0 min 0 min 0,0 UV-I 0 W/m 35,4 km/h (5 Bft)
30.08.2014 03:20 15,9 C 14,4 C 87 % 1016,1 hPa 0,0 l/m 0 min 0 min 0,0 UV-I 0 W/m 24,7 km/h (4 Bft)
30.08.2014 03:22 15,9 C 14,4 C 87 % 1016,1 hPa 0,0 l/m 0 min 0 min 0,0 UV-I 0 W/m 38,9 km/h (6 Bft)
30.08.2014 03:24 15,9 C 14,4 C 86 % 1016,1 hPa 0,0 l/m 0 min 0 min 0,0 UV-I 0 W/m 38,9 km/h (6 Bft)
30.08.2014 03:26 15,9 C 14,4 C 86 % 1016,0 hPa 0,0 l/m 0 min 0 min 0,0 UV-I 0 W/m 24,7 km/h (4 Bft)
30.08.2014 03:28 15,9 C 14,4 C 86 % 1016,0 hPa 0,0 l/m 0 min 0 min 0,0 UV-I 0 W/m 17,7 km/h (3 Bft)
30.08.2014 03:30 15,9 C 14,4 C 86 % 1016,0 hPa 0,0 l/m 0 min 0 min 0,0 UV-I 0 W/m 31,7 km/h (5 Bft)
30.08.2014 03:32 15,9 C 14,4 C 86 % 1016,0 hPa 0,0 l/m 0 min 0 min 0,0 UV-I 0 W/m 28,2 km/h (4 Bft)
30.08.2014 03:34 15,9 C 14,4 C 86 % 1016,0 hPa 0,0 l/m 0 min 0 min 0,0 UV-I 0 W/m 24,7 km/h (4 Bft)
30.08.2014 03:36 15,9 C 14,4 C 86 % 1016,0 hPa 0,0 l/m 0 min 0 min 0,0 UV-I 0 W/m 35,4 km/h (5 Bft)
30.08.2014 03:38 15,9 C 14,4 C 86 % 1016,1 hPa 0,0 l/m 0 min 0 min 0,0 UV-I 0 W/m 35,4 km/h (5 Bft)
30.08.2014 03:40 15,9 C 14,4 C 86 % 1016,0 hPa 0,0 l/m 0 min 0 min 0,0 UV-I 0 W/m 31,7 km/h (5 Bft)
30.08.2014 03:42 15,9 C 14,4 C 86 % 1016,0 hPa 0,0 l/m 0 min 0 min 0,0 UV-I 0 W/m 24,7 km/h (4 Bft)
30.08.2014 03:44 15,9 C 14,4 C 86 % 1016,0 hPa 0,0 l/m 0 min 0 min 0,0 UV-I 0 W/m 21,3 km/h (4 Bft)
30.08.2014 03:46 15,9 C 14,4 C 86 % 1016,0 hPa 0,0 l/m 0 min 0 min 0,0 UV-I 0 W/m 17,7 km/h (3 Bft)
30.08.2014 03:48 15,9 C 14,4 C 86 % 1016,0 hPa 0,0 l/m 0 min 0 min 0,0 UV-I 0 W/m 21,3 km/h (4 Bft)
30.08.2014 03:50 15,9 C 14,4 C 86 % 1016,0 hPa 0,0 l/m 0 min 0 min 0,0 UV-I 0 W/m 24,7 km/h (4 Bft)
30.08.2014 03:52 15,9 C 14,4 C 86 % 1015,9 hPa 0,0 l/m 0 min 0 min 0,0 UV-I 0 W/m 21,3 km/h (4 Bft)
30.08.2014 03:54 15,9 C 14,4 C 86 % 1015,9 hPa 0,0 l/m 0 min 0 min 0,0 UV-I 0 W/m 28,2 km/h (4 Bft)
30.08.2014 03:56 15,9 C 14,4 C 86 % 1015,9 hPa 0,0 l/m 0 min 0 min 0,0 UV-I 0 W/m 24,7 km/h (4 Bft)
30.08.2014 03:58 15,9 C 14,4 C 86 % 1015,9 hPa 0,0 l/m 0 min 0 min 0,0 UV-I 0 W/m 28,2 km/h (4 Bft)
30.08.2014 04:00 15,9 C 14,4 C 86 % 1015,8 hPa 0,0 l/m 0 min 0 min 0,0 UV-I 0 W/m 28,2 km/h (4 Bft)
30.08.2014 04:02 15,9 C 14,4 C 85 % 1015,9 hPa 0,0 l/m 0 min 0 min 0,0 UV-I 0 W/m 28,2 km/h (4 Bft)
30.08.2014 04:04 15,9 C 14,4 C 85 % 1015,8 hPa 0,0 l/m 0 min 0 min 0,0 UV-I 0 W/m 31,7 km/h (5 Bft)
30.08.2014 04:06 15,9 C 14,4 C 85 % 1015,8 hPa 0,0 l/m 0 min 0 min 0,0 UV-I 0 W/m 31,7 km/h (5 Bft)
30.08.2014 04:08 15,9 C 14,4 C 85 % 1015,7 hPa 0,0 l/m 0 min 0 min 0,0 UV-I 0 W/m 31,7 km/h (5 Bft)
30.08.2014 04:10 15,9 C 14,4 C 85 % 1015,7 hPa 0,0 l/m 0 min 0 min 0,0 UV-I 0 W/m 28,2 km/h (4 Bft)
30.08.2014 04:12 15,9 C 14,4 C 85 % 1015,7 hPa 0,0 l/m 0 min 0 min 0,0 UV-I 0 W/m 28,2 km/h (4 Bft)
30.08.2014 04:14 15,9 C 14,4 C 85 % 1015,8 hPa 0,0 l/m 0 min 0 min 0,0 UV-I 0 W/m 28,2 km/h (4 Bft)
30.08.2014 04:16 15,9 C 14,4 C 85 % 1015,7 hPa 0,0 l/m 0 min 0 min 0,0 UV-I 0 W/m 38,9 km/h (6 Bft)
30.08.2014 04:18 15,9 C 14,4 C 85 % 1015,7 hPa 0,0 l/m 0 min 0 min 0,0 UV-I 0 W/m 31,7 km/h (5 Bft)
30.08.2014 04:20 15,9 C 14,4 C 85 % 1015,7 hPa 0,0 l/m 0 min 0 min 0,0 UV-I 0 W/m 28,2 km/h (4 Bft)
30.08.2014 04:22 15,9 C 14,4 C 85 % 1015,8 hPa 0,0 l/m 0 min 0 min 0,0 UV-I 0 W/m 21,3 km/h (4 Bft)
30.08.2014 04:24 15,9 C 14,4 C 85 % 1015,7 hPa 0,0 l/m 0 min 0 min 0,0 UV-I 0 W/m 28,2 km/h (4 Bft)
30.08.2014 04:26 15,9 C 14,4 C 85 % 1015,7 hPa 0,0 l/m 0 min 0 min 0,0 UV-I 0 W/m 17,7 km/h (3 Bft)
30.08.2014 04:28 15,9 C 14,4 C 85 % 1015,7 hPa 0,0 l/m 0 min 0 min 0,0 UV-I 0 W/m 31,7 km/h (5 Bft)
30.08.2014 04:30 15,9 C 14,4 C 85 % 1015,7 hPa 0,0 l/m 0 min 0 min 0,0 UV-I 0 W/m 21,3 km/h (4 Bft)
30.08.2014 04:32 15,9 C 14,4 C 85 % 1015,7 hPa 0,0 l/m 0 min 0 min 0,0 UV-I 0 W/m 21,3 km/h (4 Bft)
30.08.2014 04:34 15,9 C 14,4 C 85 % 1015,8 hPa 0,0 l/m 0 min 0 min 0,0 UV-I 0 W/m 21,3 km/h (4 Bft)
30.08.2014 04:36 15,9 C 14,4 C 85 % 1015,8 hPa 0,0 l/m 0 min 0 min 0,0 UV-I 0 W/m 21,3 km/h (4 Bft)
30.08.2014 04:38 15,9 C 14,4 C 85 % 1015,8 hPa 0,0 l/m 0 min 0 min 0,0 UV-I 0 W/m 21,3 km/h (4 Bft)
30.08.2014 04:40 15,9 C 14,4 C 84 % 1015,7 hPa 0,0 l/m 0 min 0 min 0,0 UV-I 0 W/m 31,7 km/h (5 Bft)
30.08.2014 04:42 15,9 C 14,4 C 84 % 1015,7 hPa 0,0 l/m 0 min 0 min 0,0 UV-I 0 W/m 21,3 km/h (4 Bft)
30.08.2014 04:44 15,9 C 14,4 C 84 % 1015,7 hPa 0,0 l/m 0 min 0 min 0,0 UV-I 0 W/m 24,7 km/h (4 Bft)
30.08.2014 04:46 15,9 C 14,4 C 84 % 1015,8 hPa 0,0 l/m 0 min 0 min 0,0 UV-I 0 W/m 17,7 km/h (3 Bft)
30.08.2014 04:48 15,9 C 14,4 C 84 % 1015,7 hPa 0,0 l/m 0 min 0 min 0,0 UV-I 0 W/m 24,7 km/h (4 Bft)
30.08.2014 04:50 16,0 C 14,4 C 84 % 1015,8 hPa 0,0 l/m 0 min 0 min 0,0 UV-I 0 W/m 28,2 km/h (4 Bft)
30.08.2014 04:52 16,0 C 14,4 C 84 % 1015,7 hPa 0,0 l/m 0 min 0 min 0,0 UV-I 0 W/m 21,3 km/h (4 Bft)
30.08.2014 04:54 15,9 C 14,4 C 84 % 1015,7 hPa 0,0 l/m 0 min 0 min 0,0 UV-I 0 W/m 38,9 km/h (6 Bft)
30.08.2014 04:56 15,9 C 14,4 C 85 % 1015,7 hPa 0,0 l/m 0 min 0 min 0,0 UV-I 0 W/m 31,7 km/h (5 Bft)
30.08.2014 04:58 15,9 C 14,4 C 85 % 1015,7 hPa 0,0 l/m 0 min 0 min 0,0 UV-I 0 W/m 14,2 km/h (3 Bft)
30.08.2014 05:00 16,0 C 14,4 C 85 % 1015,7 hPa 0,0 l/m 0 min 0 min 0,0 UV-I 0 W/m 35,4 km/h (5 Bft)
30.08.2014 05:02 16,0 C 14,4 C 84 % 1015,7 hPa 0,0 l/m 0 min 0 min 0,0 UV-I 0 W/m 21,3 km/h (4 Bft)
30.08.2014 05:04 16,0 C 14,4 C 85 % 1015,7 hPa 0,0 l/m 0 min 0 min 0,0 UV-I 0 W/m 31,7 km/h (5 Bft)
30.08.2014 05:06 16,0 C 14,4 C 84 % 1015,6 hPa 0,0 l/m 0 min 0 min 0,0 UV-I 0 W/m 24,7 km/h (4 Bft)
30.08.2014 05:08 16,0 C 14,4 C 85 % 1015,6 hPa 0,0 l/m 0 min 0 min 0,0 UV-I 0 W/m 17,7 km/h (3 Bft)
30.08.2014 05:10 16,0 C 14,4 C 85 % 1015,6 hPa 0,0 l/m 0 min 0 min 0,0 UV-I 0 W/m 28,2 km/h (4 Bft)
30.08.2014 05:12 16,0 C 14,4 C 85 % 1015,6 hPa 0,0 l/m 0 min 0 min 0,0 UV-I 0 W/m 31,7 km/h (5 Bft)
30.08.2014 05:14 16,0 C 14,4 C 85 % 1015,6 hPa 0,0 l/m 0 min 0 min 0,0 UV-I 0 W/m 17,7 km/h (3 Bft)
30.08.2014 05:16 16,0 C 14,4 C 85 % 1015,5 hPa 0,0 l/m 0 min 0 min 0,0 UV-I 0 W/m 17,7 km/h (3 Bft)
30.08.2014 05:18 16,0 C 14,4 C 85 % 1015,5 hPa 0,0 l/m 0 min 0 min 0,0 UV-I 0 W/m 21,3 km/h (4 Bft)
30.08.2014 05:20 16,0 C 14,4 C 85 % 1015,5 hPa 0,0 l/m 0 min 0 min 0,0 UV-I 0 W/m 24,7 km/h (4 Bft)
30.08.2014 05:22 16,0 C 14,4 C 85 % 1015,5 hPa 0,0 l/m 0 min 0 min 0,0 UV-I 0 W/m 10,7 km/h (2 Bft)
30.08.2014 05:24 16,0 C 14,4 C 85 % 1015,5 hPa 0,0 l/m 0 min 0 min 0,0 UV-I 0 W/m 28,2 km/h (4 Bft)
30.08.2014 05:26 16,0 C 14,4 C 85 % 1015,5 hPa 0,0 l/m 0 min 0 min 0,0 UV-I 0 W/m 28,2 km/h (4 Bft)
30.08.2014 05:28 16,0 C 14,4 C 85 % 1015,6 hPa 0,0 l/m 0 min 0 min 0,0 UV-I 0 W/m 31,7 km/h (5 Bft)
30.08.2014 05:30 16,0 C 14,4 C 85 % 1015,5 hPa 0,0 l/m 0 min 0 min 0,0 UV-I 0 W/m 31,7 km/h (5 Bft)
30.08.2014 05:32 16,1 C 14,4 C 85 % 1015,6 hPa 0,0 l/m 0 min 0 min 0,0 UV-I 0 W/m 17,7 km/h (3 Bft)
30.08.2014 05:34 16,1 C 14,4 C 85 % 1015,5 hPa 0,0 l/m 0 min 0 min 0,0 UV-I 0 W/m 24,7 km/h (4 Bft)
30.08.2014 05:36 16,1 C 14,4 C 85 % 1015,5 hPa 0,0 l/m 0 min 0 min 0,0 UV-I 0 W/m 21,3 km/h (4 Bft)
30.08.2014 05:38 16,1 C 14,4 C 85 % 1015,5 hPa 0,0 l/m 0 min 0 min 0,0 UV-I 0 W/m 24,7 km/h (4 Bft)
30.08.2014 05:40 16,1 C 14,4 C 85 % 1015,5 hPa 0,0 l/m 0 min 0 min 0,0 UV-I 0 W/m 10,7 km/h (2 Bft)
30.08.2014 05:42 16,1 C 14,4 C 85 % 1015,5 hPa 0,0 l/m 0 min 0 min 0,0 UV-I 0 W/m 28,2 km/h (4 Bft)
30.08.2014 05:44 16,1 C 14,4 C 85 % 1015,5 hPa 0,0 l/m 0 min 0 min 0,0 UV-I 0 W/m 21,3 km/h (4 Bft)
30.08.2014 05:46 16,1 C 14,4 C 85 % 1015,5 hPa 0,0 l/m 0 min 0 min 0,0 UV-I 0 W/m 24,7 km/h (4 Bft)
30.08.2014 05:48 16,1 C 14,4 C 85 % 1015,5 hPa 0,0 l/m 0 min 0 min 0,0 UV-I 0 W/m 17,7 km/h (3 Bft)
30.08.2014 05:50 16,1 C 14,4 C 85 % 1015,5 hPa 0,0 l/m 0 min 0 min 0,0 UV-I 0 W/m 31,7 km/h (5 Bft)
30.08.2014 05:52 16,1 C 14,4 C 85 % 1015,4 hPa 0,0 l/m 0 min 0 min 0,0 UV-I 0 W/m 28,2 km/h (4 Bft)
30.08.2014 05:54 16,1 C 14,4 C 85 % 1015,5 hPa 0,0 l/m 0 min 0 min 0,0 UV-I 0 W/m 24,7 km/h (4 Bft)
30.08.2014 05:56 16,1 C 14,4 C 85 % 1015,5 hPa 0,0 l/m 0 min 0 min 0,0 UV-I 0 W/m 24,7 km/h (4 Bft)
30.08.2014 05:58 16,1 C 14,4 C 85 % 1015,5 hPa 0,0 l/m 0 min 0 min 0,0 UV-I 0 W/m 24,7 km/h (4 Bft)
30.08.2014 06:00 16,1 C 14,4 C 85 % 1015,4 hPa 0,0 l/m 0 min 0 min 0,0 UV-I 0 W/m 17,7 km/h (3 Bft)
30.08.2014 06:02 16,1 C 14,4 C 85 % 1015,4 hPa 0,0 l/m 0 min 0 min 0,0 UV-I 0 W/m 24,7 km/h (4 Bft)
30.08.2014 06:06 16,1 C 14,4 C 85 % 1015,4 hPa 0,0 l/m 0 min 0 min 0,0 UV-I 0 W/m 31,7 km/h (5 Bft)
30.08.2014 06:08 16,1 C 14,4 C 85 % 1015,4 hPa 0,0 l/m 0 min 0 min 0,0 UV-I 0 W/m 17,7 km/h (3 Bft)
30.08.2014 06:10 16,1 C 14,4 C 85 % 1015,3 hPa 0,0 l/m 0 min 0 min 0,0 UV-I 0 W/m 24,7 km/h (4 Bft)
30.08.2014 06:12 16,1 C 14,4 C 85 % 1015,3 hPa 0,0 l/m 0 min 0 min 0,0 UV-I 0 W/m 31,7 km/h (5 Bft)
30.08.2014 06:14 16,1 C 14,4 C 85 % 1015,3 hPa 0,0 l/m 0 min 0 min 0,0 UV-I 0 W/m 31,7 km/h (5 Bft)
30.08.2014 06:16 16,1 C 14,4 C 85 % 1015,3 hPa 0,0 l/m 0 min 0 min 0,0 UV-I 0 W/m 21,3 km/h (4 Bft)
30.08.2014 06:18 16,1 C 14,4 C 85 % 1015,4 hPa 0,0 l/m 0 min 0 min 0,0 UV-I 0 W/m 17,7 km/h (3 Bft)
30.08.2014 06:20 16,1 C 14,4 C 85 % 1015,4 hPa 0,0 l/m 0 min 0 min 0,0 UV-I 0 W/m 24,7 km/h (4 Bft)
30.08.2014 06:22 16,1 C 14,4 C 85 % 1015,4 hPa 0,0 l/m 0 min 0 min 0,0 UV-I 0 W/m 21,3 km/h (4 Bft)
30.08.2014 06:24 16,1 C 14,4 C 85 % 1015,3 hPa 0,0 l/m 0 min 0 min 0,0 UV-I 0 W/m 21,3 km/h (4 Bft)
30.08.2014 06:26 16,1 C 14,4 C 85 % 1015,4 hPa 0,0 l/m 0 min 0 min 0,0 UV-I 0 W/m 28,2 km/h (4 Bft)
30.08.2014 06:28 16,1 C 14,4 C 85 % 1015,3 hPa 0,0 l/m 0 min 0 min 0,0 UV-I 0 W/m 24,7 km/h (4 Bft)
30.08.2014 06:30 16,1 C 14,4 C 85 % 1015,4 hPa 0,0 l/m 0 min 0 min 0,0 UV-I 0 W/m 21,3 km/h (4 Bft)
30.08.2014 06:32 16,0 C 14,4 C 85 % 1015,3 hPa 0,0 l/m 0 min 0 min 0,0 UV-I 0 W/m 14,2 km/h (3 Bft)
30.08.2014 06:34 16,0 C 14,4 C 85 % 1015,4 hPa 0,0 l/m 0 min 0 min 0,0 UV-I 0 W/m 31,7 km/h (5 Bft)
30.08.2014 06:36 16,0 C 14,4 C 85 % 1015,4 hPa 0,0 l/m 0 min 0 min 0,0 UV-I 0 W/m 24,7 km/h (4 Bft)
30.08.2014 06:38 16,0 C 14,4 C 85 % 1015,4 hPa 0,0 l/m 0 min 0 min 0,0 UV-I 0 W/m 21,3 km/h (4 Bft)
30.08.2014 06:40 16,0 C 14,4 C 86 % 1015,4 hPa 0,0 l/m 0 min 0 min 0,0 UV-I 0 W/m 21,3 km/h (4 Bft)
30.08.2014 06:42 15,9 C 14,4 C 86 % 1015,4 hPa 0,0 l/m 0 min 0 min 0,0 UV-I 0 W/m 28,2 km/h (4 Bft)
30.08.2014 06:44 15,9 C 14,4 C 86 % 1015,4 hPa 0,0 l/m 0 min 0 min 0,0 UV-I 0 W/m 24,7 km/h (4 Bft)
30.08.2014 06:46 15,9 C 13,9 C 86 % 1015,3 hPa 0,0 l/m 0 min 0 min 0,0 UV-I 0 W/m 28,2 km/h (4 Bft)
30.08.2014 06:48 15,9 C 13,9 C 86 % 1015,3 hPa 0,0 l/m 0 min 0 min 0,0 UV-I 0 W/m 28,2 km/h (4 Bft)
30.08.2014 06:50 15,9 C 13,9 C 86 % 1015,3 hPa 0,0 l/m 0 min 0 min 0,0 UV-I 5 W/m 21,3 km/h (4 Bft)
30.08.2014 06:52 15,9 C 13,9 C 86 % 1015,4 hPa 0,0 l/m 0 min 0 min 0,0 UV-I 5 W/m 21,3 km/h (4 Bft)
30.08.2014 06:54 15,9 C 13,9 C 86 % 1015,4 hPa 0,0 l/m 0 min 0 min 0,0 UV-I 5 W/m 28,2 km/h (4 Bft)
30.08.2014 06:56 15,8 C 13,9 C 86 % 1015,4 hPa 0,0 l/m 0 min 0 min 0,0 UV-I 5 W/m 10,7 km/h (2 Bft)
30.08.2014 06:58 15,8 C 13,9 C 86 % 1015,4 hPa 0,0 l/m 0 min 0 min 0,0 UV-I 7 W/m 10,7 km/h (2 Bft)
30.08.2014 07:00 15,8 C 13,9 C 86 % 1015,4 hPa 0,0 l/m 0 min 0 min 0,0 UV-I 7 W/m 17,7 km/h (3 Bft)
30.08.2014 07:02 15,8 C 13,9 C 86 % 1015,3 hPa 0,0 l/m 0 min 0 min 0,0 UV-I 7 W/m 21,3 km/h (4 Bft)
30.08.2014 07:04 15,8 C 13,9 C 86 % 1015,3 hPa 0,0 l/m 0 min 0 min 0,0 UV-I 8 W/m 21,3 km/h (4 Bft)
30.08.2014 07:06 15,8 C 13,9 C 86 % 1015,3 hPa 0,0 l/m 0 min 0 min 0,0 UV-I 10 W/m 21,3 km/h (4 Bft)
30.08.2014 07:08 15,7 C 13,9 C 86 % 1015,4 hPa 0,0 l/m 0 min 0 min 0,0 UV-I 11 W/m 17,7 km/h (3 Bft)
30.08.2014 07:10 15,7 C 13,9 C 86 % 1015,4 hPa 0,0 l/m 0 min 0 min 0,0 UV-I 11 W/m 14,2 km/h (3 Bft)
30.08.2014 07:12 15,7 C 13,9 C 86 % 1015,4 hPa 0,0 l/m 0 min 0 min 0,0 UV-I 9 W/m 21,3 km/h (4 Bft)
30.08.2014 07:14 15,7 C 13,9 C 86 % 1015,4 hPa 0,0 l/m 0 min 0 min 0,0 UV-I 11 W/m 24,7 km/h (4 Bft)
30.08.2014 07:16 15,7 C 13,9 C 87 % 1015,5 hPa 0,0 l/m 0 min 0 min 0,0 UV-I 12 W/m 14,2 km/h (3 Bft)
30.08.2014 07:18 15,7 C 13,9 C 87 % 1015,5 hPa 0,0 l/m 0 min 0 min 0,0 UV-I 13 W/m 21,3 km/h (4 Bft)
30.08.2014 07:20 15,6 C 13,9 C 87 % 1015,5 hPa 0,0 l/m 0 min 0 min 0,0 UV-I 15 W/m 7,1 km/h (2 Bft)
30.08.2014 07:22 15,6 C 13,9 C 87 % 1015,6 hPa 0,0 l/m 0 min 0 min 0,0 UV-I 16 W/m 17,7 km/h (3 Bft)
30.08.2014 07:24 15,6 C 13,9 C 87 % 1015,7 hPa 0,0 l/m 0 min 0 min 0,0 UV-I 18 W/m 10,7 km/h (2 Bft)
30.08.2014 07:26 15,6 C 13,9 C 87 % 1015,7 hPa 0,0 l/m 0 min 0 min 0,0 UV-I 19 W/m 21,3 km/h (4 Bft)
30.08.2014 07:28 15,6 C 13,9 C 87 % 1015,7 hPa 0,0 l/m 0 min 0 min 0,0 UV-I 19 W/m 24,7 km/h (4 Bft)
30.08.2014 07:30 15,5 C 13,9 C 87 % 1015,7 hPa 0,0 l/m 0 min 0 min 0,0 UV-I 18 W/m 21,3 km/h (4 Bft)
30.08.2014 07:32 15,5 C 13,9 C 87 % 1015,7 hPa 0,0 l/m 0 min 0 min 0,0 UV-I 15 W/m 21,3 km/h (4 Bft)
30.08.2014 07:34 15,5 C 13,9 C 87 % 1015,7 hPa 0,0 l/m 0 min 0 min 0,0 UV-I 19 W/m 24,7 km/h (4 Bft)
30.08.2014 07:36 15,5 C 13,9 C 88 % 1015,7 hPa 0,0 l/m 0 min 0 min 0,0 UV-I 19 W/m 17,7 km/h (3 Bft)
30.08.2014 07:38 15,5 C 13,9 C 88 % 1015,8 hPa 0,0 l/m 0 min 0 min 0,0 UV-I 23 W/m 31,7 km/h (5 Bft)
30.08.2014 07:40 15,5 C 14,4 C 88 % 1015,8 hPa 0,0 l/m 0 min 0 min 0,0 UV-I 42 W/m 35,4 km/h (5 Bft)
30.08.2014 07:42 15,5 C 14,4 C 88 % 1015,8 hPa 0,0 l/m 0 min 0 min 0,0 UV-I 58 W/m 28,2 km/h (4 Bft)
30.08.2014 07:44 15,5 C 14,4 C 88 % 1015,9 hPa 0,0 l/m 0 min 0 min 0,0 UV-I 60 W/m 21,3 km/h (4 Bft)
30.08.2014 07:46 15,5 C 14,4 C 88 % 1015,8 hPa 0,0 l/m 0 min 0 min 0,0 UV-I 55 W/m 21,3 km/h (4 Bft)
30.08.2014 07:48 15,6 C 14,4 C 88 % 1015,7 hPa 0,0 l/m 0 min 0 min 0,0 UV-I 50 W/m 31,7 km/h (5 Bft)
30.08.2014 07:50 15,6 C 14,4 C 88 % 1015,8 hPa 0,0 l/m 0 min 0 min 0,0 UV-I 40 W/m 24,7 km/h (4 Bft)
30.08.2014 07:52 15,6 C 14,4 C 88 % 1015,9 hPa 0,0 l/m 0 min 0 min 0,0 UV-I 36 W/m 21,3 km/h (4 Bft)
30.08.2014 07:54 15,6 C 14,4 C 88 % 1015,8 hPa 0,0 l/m 0 min 0 min 0,0 UV-I 31 W/m 21,3 km/h (4 Bft)
30.08.2014 07:56 15,6 C 14,4 C 88 % 1015,8 hPa 0,0 l/m 0 min 0 min 0,0 UV-I 30 W/m 17,7 km/h (3 Bft)
30.08.2014 07:58 15,6 C 14,4 C 88 % 1015,8 hPa 0,0 l/m 0 min 0 min 0,0 UV-I 27 W/m 35,4 km/h (5 Bft)
30.08.2014 08:00 15,6 C 14,4 C 88 % 1015,8 hPa 0,0 l/m 0 min 0 min 0,0 UV-I 28 W/m 31,7 km/h (5 Bft)
30.08.2014 08:02 15,7 C 14,4 C 88 % 1015,8 hPa 0,0 l/m 0 min 0 min 0,0 UV-I 37 W/m 21,3 km/h (4 Bft)
30.08.2014 08:04 15,7 C 14,4 C 88 % 1015,8 hPa 0,0 l/m 0 min 0 min 0,0 UV-I 45 W/m 21,3 km/h (4 Bft)
30.08.2014 08:06 15,7 C 14,4 C 88 % 1015,9 hPa 0,0 l/m 0 min 0 min 0,0 UV-I 48 W/m 24,7 km/h (4 Bft)
30.08.2014 08:08 15,7 C 15,0 C 88 % 1015,9 hPa 0,0 l/m 0 min 0 min 0,0 UV-I 50 W/m 21,3 km/h (4 Bft)
30.08.2014 08:10 15,7 C 15,0 C 88 % 1015,9 hPa 0,0 l/m 0 min 0 min 0,0 UV-I 47 W/m 24,7 km/h (4 Bft)
30.08.2014 08:12 15,7 C 15,0 C 88 % 1015,9 hPa 0,0 l/m 0 min 0 min 0,0 UV-I 46 W/m 35,4 km/h (5 Bft)
30.08.2014 08:14 15,7 C 15,0 C 88 % 1015,9 hPa 0,0 l/m 0 min 0 min 0,0 UV-I 47 W/m 35,4 km/h (5 Bft)
30.08.2014 08:16 15,8 C 15,0 C 88 % 1016,0 hPa 0,0 l/m 0 min 0 min 0,0 UV-I 47 W/m 38,9 km/h (6 Bft)
30.08.2014 08:18 15,8 C 15,0 C 88 % 1015,9 hPa 0,0 l/m 0 min 0 min 0,0 UV-I 44 W/m 17,7 km/h (3 Bft)
30.08.2014 08:20 15,8 C 15,0 C 88 % 1015,9 hPa 0,0 l/m 0 min 0 min 0,0 UV-I 41 W/m 31,7 km/h (5 Bft)
30.08.2014 08:22 15,8 C 15,0 C 88 % 1015,9 hPa 0,0 l/m 0 min 0 min 0,0 UV-I 43 W/m 28,2 km/h (4 Bft)
30.08.2014 08:24 15,8 C 15,0 C 87 % 1015,9 hPa 0,0 l/m 0 min 0 min 0,0 UV-I 39 W/m 24,7 km/h (4 Bft)
30.08.2014 08:26 15,9 C 15,0 C 87 % 1015,9 hPa 0,0 l/m 0 min 0 min 0,0 UV-I 44 W/m 38,9 km/h (6 Bft)
30.08.2014 08:28 15,9 C 15,0 C 87 % 1015,9 hPa 0,0 l/m 0 min 0 min 0,0 UV-I 35 W/m 28,2 km/h (4 Bft)
30.08.2014 08:30 15,9 C 15,0 C 87 % 1016,0 hPa 0,0 l/m 0 min 0 min 0,0 UV-I 33 W/m 24,7 km/h (4 Bft)
30.08.2014 08:32 15,9 C 15,0 C 87 % 1016,0 hPa 0,0 l/m 0 min 0 min 0,0 UV-I 42 W/m 17,7 km/h (3 Bft)
30.08.2014 08:34 15,9 C 15,0 C 87 % 1015,9 hPa 0,0 l/m 0 min 0 min 0,0 UV-I 46 W/m 35,4 km/h (5 Bft)
30.08.2014 08:36 15,9 C 15,0 C 87 % 1016,1 hPa 0,0 l/m 0 min 0 min 0,0 UV-I 47 W/m 24,7 km/h (4 Bft)
30.08.2014 08:38 15,9 C 15,0 C 87 % 1016,1 hPa 0,0 l/m 0 min 0 min 0,0 UV-I 51 W/m 31,7 km/h (5 Bft)
30.08.2014 08:40 16,0 C 15,0 C 87 % 1016,0 hPa 0,0 l/m 0 min 0 min 0,0 UV-I 53 W/m 28,2 km/h (4 Bft)
30.08.2014 08:42 16,0 C 15,0 C 87 % 1016,0 hPa 0,0 l/m 0 min 0 min 0,0 UV-I 63 W/m 35,4 km/h (5 Bft)
30.08.2014 08:44 16,0 C 15,0 C 87 % 1016,0 hPa 0,0 l/m 0 min 0 min 0,0 UV-I 72 W/m 31,7 km/h (5 Bft)
30.08.2014 08:46 16,1 C 15,0 C 87 % 1016,1 hPa 0,0 l/m 0 min 0 min 0,0 UV-I 82 W/m 31,7 km/h (5 Bft)
30.08.2014 08:48 16,1 C 15,0 C 87 % 1016,0 hPa 0,0 l/m 0 min 0 min 0,0 UV-I 76 W/m 31,7 km/h (5 Bft)
30.08.2014 08:50 16,1 C 15,0 C 87 % 1016,0 hPa 0,0 l/m 0 min 0 min 0,0 UV-I 65 W/m 38,9 km/h (6 Bft)
30.08.2014 08:52 16,1 C 15,0 C 87 % 1016,1 hPa 0,0 l/m 0 min 0 min 0,0 UV-I 62 W/m 21,3 km/h (4 Bft)
30.08.2014 08:54 16,1 C 15,0 C 87 % 1016,1 hPa 0,0 l/m 0 min 0 min 0,0 UV-I 59 W/m 35,4 km/h (5 Bft)
30.08.2014 08:56 16,1 C 15,0 C 87 % 1016,0 hPa 0,0 l/m 0 min 0 min 0,0 UV-I 66 W/m 35,4 km/h (5 Bft)
30.08.2014 08:58 16,2 C 15,0 C 87 % 1016,0 hPa 0,0 l/m 0 min 0 min 0,0 UV-I 74 W/m 28,2 km/h (4 Bft)
30.08.2014 09:00 16,2 C 15,0 C 87 % 1016,0 hPa 0,0 l/m 0 min 0 min 0,0 UV-I 73 W/m 28,2 km/h (4 Bft)
30.08.2014 09:02 16,2 C 15,0 C 87 % 1015,9 hPa 0,0 l/m 0 min 0 min 0,0 UV-I 85 W/m 38,9 km/h (6 Bft)
30.08.2014 09:04 16,2 C 15,0 C 87 % 1015,9 hPa 0,0 l/m 0 min 0 min 0,0 UV-I 84 W/m 24,7 km/h (4 Bft)
30.08.2014 09:06 16,2 C 15,0 C 87 % 1016,0 hPa 0,0 l/m 0 min 0 min 0,0 UV-I 68 W/m 35,4 km/h (5 Bft)
30.08.2014 09:08 16,3 C 15,0 C 87 % 1016,0 hPa 0,0 l/m 0 min 0 min 0,0 UV-I 49 W/m 35,4 km/h (5 Bft)
30.08.2014 09:10 16,3 C 15,0 C 87 % 1016,0 hPa 0,0 l/m 0 min 0 min 0,0 UV-I 56 W/m 42,4 km/h (6 Bft)
30.08.2014 09:12 16,3 C 15,0 C 87 % 1016,0 hPa 0,0 l/m 0 min 0 min 0,0 UV-I 83 W/m 35,4 km/h (5 Bft)
30.08.2014 09:14 16,3 C 15,6 C 87 % 1016,0 hPa 0,0 l/m 0 min 0 min 0,0 UV-I 126 W/m 31,7 km/h (5 Bft)
30.08.2014 09:16 16,3 C 15,6 C 87 % 1016,1 hPa 0,0 l/m 0 min 0 min 0,0 UV-I 154 W/m 35,4 km/h (5 Bft)
30.08.2014 09:18 16,4 C 15,6 C 87 % 1016,0 hPa 0,0 l/m 0 min 0 min 0,0 UV-I 139 W/m 28,2 km/h (4 Bft)
30.08.2014 09:20 16,4 C 15,6 C 87 % 1016,0 hPa 0,0 l/m 0 min 0 min 0,0 UV-I 94 W/m 35,4 km/h (5 Bft)
30.08.2014 09:22 16,4 C 15,6 C 87 % 1016,1 hPa 0,0 l/m 0 min 0 min 0,0 UV-I 94 W/m 31,7 km/h (5 Bft)
30.08.2014 09:24 16,4 C 15,6 C 87 % 1016,0 hPa 0,0 l/m 0 min 2 min 0,0 UV-I 120 W/m 28,2 km/h (4 Bft)
30.08.2014 09:26 16,4 C 15,6 C 87 % 1016,0 hPa 0,0 l/m 0 min 2 min 0,0 UV-I 117 W/m 28,2 km/h (4 Bft)
30.08.2014 09:28 16,5 C 15,6 C 87 % 1016,0 hPa 0,0 l/m 0 min 0 min 0,0 UV-I 77 W/m 21,3 km/h (4 Bft)
30.08.2014 09:30 16,5 C 15,6 C 87 % 1016,1 hPa 0,0 l/m 0 min 2 min 0,0 UV-I 68 W/m 31,7 km/h (5 Bft)
30.08.2014 09:32 16,6 C 15,0 C 87 % 1016,1 hPa 0,0 l/m 0 min 0 min 0,0 UV-I 63 W/m 28,2 km/h (4 Bft)
30.08.2014 09:34 16,6 C 15,0 C 87 % 1016,0 hPa 0,0 l/m 0 min 0 min 0,0 UV-I 57 W/m 31,7 km/h (5 Bft)
30.08.2014 09:36 16,6 C 15,0 C 87 % 1016,0 hPa 0,0 l/m 0 min 0 min 0,0 UV-I 57 W/m 31,7 km/h (5 Bft)
30.08.2014 09:38 16,6 C 15,0 C 87 % 1016,1 hPa 0,0 l/m 0 min 0 min 0,0 UV-I 60 W/m 31,7 km/h (5 Bft)
30.08.2014 09:40 16,6 C 15,6 C 87 % 1016,1 hPa 0,0 l/m 0 min 0 min 0,0 UV-I 70 W/m 31,7 km/h (5 Bft)
30.08.2014 09:42 16,6 C 15,6 C 87 % 1016,0 hPa 0,0 l/m 0 min 0 min 0,0 UV-I 73 W/m 35,4 km/h (5 Bft)
30.08.2014 09:44 16,6 C 15,6 C 87 % 1016,0 hPa 0,0 l/m 0 min 0 min 0,0 UV-I 65 W/m 28,2 km/h (4 Bft)
30.08.2014 09:46 16,6 C 15,6 C 87 % 1016,0 hPa 0,0 l/m 0 min 0 min 0,0 UV-I 55 W/m 35,4 km/h (5 Bft)
30.08.2014 09:48 16,6 C 15,0 C 87 % 1015,9 hPa 0,0 l/m 0 min 0 min 0,0 UV-I 53 W/m 35,4 km/h (5 Bft)
30.08.2014 09:50 16,6 C 15,0 C 87 % 1015,9 hPa 0,0 l/m 0 min 0 min 0,0 UV-I 64 W/m 28,2 km/h (4 Bft)
30.08.2014 09:52 16,6 C 15,6 C 87 % 1015,9 hPa 0,0 l/m 0 min 0 min 0,0 UV-I 100 W/m 31,7 km/h (5 Bft)
30.08.2014 09:54 16,6 C 15,6 C 87 % 1015,9 hPa 0,0 l/m 0 min 0 min 0,0 UV-I 126 W/m 14,2 km/h (3 Bft)
30.08.2014 09:56 16,6 C 15,6 C 87 % 1015,9 hPa 0,0 l/m 0 min 0 min 0,0 UV-I 115 W/m 24,7 km/h (4 Bft)
30.08.2014 09:58 16,6 C 15,6 C 87 % 1015,9 hPa 0,0 l/m 0 min 0 min 0,0 UV-I 86 W/m 35,4 km/h (5 Bft)
30.08.2014 10:00 16,6 C 15,6 C 87 % 1016,0 hPa 0,0 l/m 0 min 0 min 0,0 UV-I 79 W/m 28,2 km/h (4 Bft)
30.08.2014 10:02 16,6 C 15,6 C 87 % 1015,9 hPa 0,0 l/m 0 min 0 min 0,0 UV-I 95 W/m 31,7 km/h (5 Bft)
30.08.2014 10:04 16,7 C 15,6 C 87 % 1016,1 hPa 0,0 l/m 0 min 0 min 0,0 UV-I 102 W/m 21,3 km/h (4 Bft)
30.08.2014 10:06 16,7 C 15,6 C 87 % 1016,0 hPa 0,0 l/m 0 min 0 min 0,0 UV-I 97 W/m 21,3 km/h (4 Bft)
30.08.2014 10:08 16,7 C 16,1 C 87 % 1016,1 hPa 0,0 l/m 0 min 0 min 0,0 UV-I 96 W/m 14,2 km/h (3 Bft)
30.08.2014 10:10 16,7 C 16,1 C 87 % 1016,0 hPa 0,0 l/m 0 min 0 min 0,0 UV-I 101 W/m 21,3 km/h (4 Bft)
30.08.2014 10:12 16,8 C 16,1 C 88 % 1016,1 hPa 0,0 l/m 0 min 0 min 0,0 UV-I 93 W/m 46,0 km/h (6 Bft)
30.08.2014 10:14 16,8 C 15,6 C 88 % 1016,1 hPa 0,0 l/m 0 min 0 min 0,0 UV-I 80 W/m 53,0 km/h (7 Bft)
30.08.2014 10:16 16,8 C 15,6 C 87 % 1016,1 hPa 0,0 l/m 0 min 0 min 0,0 UV-I 80 W/m 49,5 km/h (6 Bft)
30.08.2014 10:18 16,8 C 15,6 C 87 % 1016,1 hPa 0,0 l/m 0 min 0 min 0,0 UV-I 83 W/m 38,9 km/h (6 Bft)
30.08.2014 10:20 16,8 C 15,6 C 87 % 1016,1 hPa 0,0 l/m 0 min 0 min 0,0 UV-I 73 W/m 31,7 km/h (5 Bft)
30.08.2014 10:22 16,8 C 15,6 C 87 % 1016,1 hPa 0,0 l/m 0 min 0 min 0,0 UV-I 68 W/m 21,3 km/h (4 Bft)
30.08.2014 10:24 16,8 C 15,6 C 87 % 1016,1 hPa 0,0 l/m 0 min 0 min 0,0 UV-I 82 W/m 31,7 km/h (5 Bft)
30.08.2014 10:26 16,8 C 15,6 C 87 % 1016,1 hPa 0,0 l/m 0 min 0 min 0,0 UV-I 85 W/m 42,4 km/h (6 Bft)
30.08.2014 10:28 16,9 C 15,6 C 87 % 1016,1 hPa 0,0 l/m 0 min 0 min 0,0 UV-I 84 W/m 70,6 km/h (8 Bft)
30.08.2014 10:30 16,9 C 15,6 C 87 % 1016,1 hPa 0,0 l/m 0 min 0 min 0,0 UV-I 80 W/m 53,0 km/h (7 Bft)
30.08.2014 10:32 16,9 C 15,6 C 87 % 1016,2 hPa 0,0 l/m 0 min 0 min 0,0 UV-I 80 W/m 35,4 km/h (5 Bft)
30.08.2014 10:34 16,9 C 15,6 C 87 % 1016,1 hPa 0,0 l/m 0 min 0 min 0,0 UV-I 97 W/m 35,4 km/h (5 Bft)
30.08.2014 10:36 16,9 C 15,6 C 87 % 1016,1 hPa 0,0 l/m 0 min 0 min 0,0 UV-I 105 W/m 49,5 km/h (6 Bft)
30.08.2014 10:38 16,9 C 15,6 C 87 % 1016,1 hPa 0,0 l/m 0 min 0 min 0,0 UV-I 108 W/m 46,0 km/h (6 Bft)
30.08.2014 10:40 16,9 C 16,1 C 87 % 1016,1 hPa 0,0 l/m 0 min 0 min 0,0 UV-I 113 W/m 46,0 km/h (6 Bft)
30.08.2014 10:42 16,9 C 16,1 C 87 % 1016,2 hPa 0,0 l/m 0 min 0 min 0,0 UV-I 107 W/m 42,4 km/h (6 Bft)
30.08.2014 10:44 16,9 C 16,1 C 87 % 1016,1 hPa 0,0 l/m 0 min 0 min 0,0 UV-I 123 W/m 49,5 km/h (6 Bft)
30.08.2014 10:46 16,9 C 16,1 C 87 % 1016,2 hPa 0,0 l/m 0 min 0 min 0,0 UV-I 128 W/m 42,4 km/h (6 Bft)
30.08.2014 10:48 17,0 C 16,1 C 87 % 1016,2 hPa 0,0 l/m 0 min 0 min 0,0 UV-I 132 W/m 49,5 km/h (6 Bft)
30.08.2014 10:50 17,0 C 16,1 C 87 % 1016,2 hPa 0,0 l/m 0 min 0 min 0,0 UV-I 148 W/m 42,4 km/h (6 Bft)
30.08.2014 10:52 17,1 C 16,1 C 87 % 1016,2 hPa 0,0 l/m 0 min 0 min 0,4 UV-I 187 W/m 42,4 km/h (6 Bft)
30.08.2014 10:54 17,1 C 16,7 C 87 % 1016,2 hPa 0,0 l/m 0 min 0 min 0,6 UV-I 203 W/m 35,4 km/h (5 Bft)
30.08.2014 10:56 17,2 C 16,7 C 87 % 1016,1 hPa 0,0 l/m 0 min 0 min 0,5 UV-I 202 W/m 21,3 km/h (4 Bft)
30.08.2014 10:58 17,2 C 16,7 C 87 % 1016,1 hPa 0,0 l/m 0 min 0 min 0,0 UV-I 151 W/m 56,5 km/h (7 Bft)
30.08.2014 11:00 17,2 C 16,7 C 87 % 1016,1 hPa 0,0 l/m 0 min 0 min 0,2 UV-I 153 W/m 56,5 km/h (7 Bft)
30.08.2014 11:02 17,2 C 16,7 C 87 % 1016,1 hPa 0,0 l/m 0 min 0 min 0,8 UV-I 209 W/m 46,0 km/h (6 Bft)
30.08.2014 11:04 17,3 C 16,7 C 87 % 1016,1 hPa 0,0 l/m 0 min 0 min 0,9 UV-I 237 W/m 63,7 km/h (8 Bft)
30.08.2014 11:06 17,3 C 16,7 C 87 % 1016,1 hPa 0,0 l/m 2 min 0 min 1,4 UV-I 311 W/m 46,0 km/h (6 Bft)
30.08.2014 11:08 17,4 C 17,2 C 87 % 1016,2 hPa 0,0 l/m 2 min 0 min 1,3 UV-I 306 W/m 46,0 km/h (6 Bft)
30.08.2014 11:10 17,4 C 17,2 C 87 % 1016,1 hPa 0,0 l/m 0 min 0 min 1,0 UV-I 261 W/m 60,2 km/h (7 Bft)
30.08.2014 11:12 17,5 C 17,2 C 87 % 1016,1 hPa 0,0 l/m 0 min 0 min 1,0 UV-I 257 W/m 35,4 km/h (5 Bft)
30.08.2014 11:14 17,6 C 17,2 C 87 % 1016,1 hPa 0,0 l/m 0 min 0 min 0,9 UV-I 235 W/m 60,2 km/h (7 Bft)
30.08.2014 11:16 17,6 C 16,7 C 86 % 1016,1 hPa 0,0 l/m 0 min 0 min 0,5 UV-I 192 W/m 56,5 km/h (7 Bft)
30.08.2014 11:18 17,6 C 16,7 C 86 % 1016,2 hPa 0,0 l/m 0 min 0 min 0,1 UV-I 150 W/m 53,0 km/h (7 Bft)
30.08.2014 11:20 17,6 C 16,7 C 86 % 1016,2 hPa 0,0 l/m 0 min 0 min 0,0 UV-I 129 W/m 31,7 km/h (5 Bft)
30.08.2014 11:22 17,6 C 16,7 C 86 % 1016,2 hPa 0,0 l/m 0 min 0 min 0,0 UV-I 118 W/m 35,4 km/h (5 Bft)
30.08.2014 11:24 17,6 C 16,7 C 86 % 1016,1 hPa 0,0 l/m 0 min 0 min 0,0 UV-I 106 W/m 53,0 km/h (7 Bft)
30.08.2014 11:26 17,6 C 16,1 C 86 % 1016,3 hPa 0,0 l/m 0 min 0 min 0,0 UV-I 92 W/m 46,0 km/h (6 Bft)
30.08.2014 11:28 17,6 C 16,1 C 86 % 1016,3 hPa 0,0 l/m 0 min 0 min 0,0 UV-I 84 W/m 60,2 km/h (7 Bft)
30.08.2014 11:30 17,5 C 16,1 C 86 % 1016,3 hPa 0,0 l/m 0 min 0 min 0,0 UV-I 103 W/m 53,0 km/h (7 Bft)
30.08.2014 11:32 17,5 C 16,1 C 86 % 1016,2 hPa 0,0 l/m 0 min 0 min 0,0 UV-I 113 W/m 28,2 km/h (4 Bft)
30.08.2014 11:34 17,4 C 16,1 C 86 % 1016,2 hPa 0,0 l/m 0 min 0 min 0,0 UV-I 109 W/m 53,0 km/h (7 Bft)
30.08.2014 11:36 17,4 C 16,1 C 85 % 1016,2 hPa 0,0 l/m 0 min 0 min 0,0 UV-I 110 W/m 46,0 km/h (6 Bft)
30.08.2014 11:38 17,4 C 16,1 C 86 % 1016,2 hPa 0,0 l/m 0 min 0 min 0,0 UV-I 129 W/m 35,4 km/h (5 Bft)
30.08.2014 11:40 17,4 C 16,1 C 85 % 1016,2 hPa 0,0 l/m 0 min 2 min 0,0 UV-I 110 W/m 49,5 km/h (6 Bft)
30.08.2014 11:42 17,4 C 15,6 C 86 % 1016,2 hPa 0,0 l/m 0 min 2 min 0,0 UV-I 81 W/m 31,7 km/h (5 Bft)
30.08.2014 11:44 17,3 C 15,6 C 86 % 1016,2 hPa 0,0 l/m 0 min 2 min 0,0 UV-I 64 W/m 38,9 km/h (6 Bft)
30.08.2014 11:46 17,3 C 15,0 C 86 % 1016,2 hPa 0,0 l/m 0 min 2 min 0,0 UV-I 66 W/m 53,0 km/h (7 Bft)
30.08.2014 11:48 17,3 C 15,0 C 86 % 1016,2 hPa 0,0 l/m 0 min 2 min 0,0 UV-I 66 W/m 35,4 km/h (5 Bft)
30.08.2014 11:50 17,3 C 15,0 C 87 % 1016,2 hPa 0,0 l/m 0 min 2 min 0,0 UV-I 88 W/m 38,9 km/h (6 Bft)
30.08.2014 11:52 17,2 C 15,0 C 87 % 1016,2 hPa 0,0 l/m 0 min 0 min 0,0 UV-I 100 W/m 42,4 km/h (6 Bft)
30.08.2014 11:54 17,2 C 15,0 C 87 % 1016,2 hPa 0,0 l/m 0 min 0 min 0,1 UV-I 123 W/m 28,2 km/h (4 Bft)
30.08.2014 11:56 17,2 C 15,0 C 87 % 1016,1 hPa 0,0 l/m 0 min 2 min 0,8 UV-I 177 W/m 42,4 km/h (6 Bft)
30.08.2014 11:58 17,2 C 15,0 C 88 % 1016,2 hPa 0,0 l/m 0 min 0 min 0,9 UV-I 202 W/m 28,2 km/h (4 Bft)
30.08.2014 12:00 17,2 C 15,6 C 88 % 1016,2 hPa 0,0 l/m 0 min 0 min 0,8 UV-I 192 W/m 24,7 km/h (4 Bft)
30.08.2014 12:02 17,2 C 15,6 C 88 % 1016,2 hPa 0,0 l/m 0 min 0 min 0,8 UV-I 192 W/m 35,4 km/h (5 Bft)
30.08.2014 12:06 17,3 C 16,1 C 88 % 1016,2 hPa 0,0 l/m 0 min 0 min 0,9 UV-I 213 W/m 38,9 km/h (6 Bft)
30.08.2014 12:08 17,3 C 16,1 C 88 % 1016,2 hPa 0,0 l/m 0 min 0 min 1,0 UV-I 220 W/m 49,5 km/h (6 Bft)
30.08.2014 12:10 17,3 C 16,1 C 88 % 1016,1 hPa 0,0 l/m 0 min 0 min 0,9 UV-I 203 W/m 53,0 km/h (7 Bft)
30.08.2014 12:12 17,3 C 16,1 C 88 % 1016,1 hPa 0,0 l/m 0 min 0 min 0,8 UV-I 188 W/m 49,5 km/h (6 Bft)
30.08.2014 12:14 17,4 C 16,1 C 88 % 1016,2 hPa 0,0 l/m 0 min 0 min 0,7 UV-I 175 W/m 49,5 km/h (6 Bft)
30.08.2014 12:16 17,4 C 16,7 C 88 % 1016,2 hPa 0,0 l/m 0 min 0 min 0,8 UV-I 189 W/m 35,4 km/h (5 Bft)
30.08.2014 12:18 17,4 C 16,7 C 88 % 1016,2 hPa 0,0 l/m 0 min 0 min 0,9 UV-I 202 W/m 28,2 km/h (4 Bft)
30.08.2014 12:20 17,5 C 16,7 C 88 % 1016,2 hPa 0,0 l/m 0 min 0 min 1,0 UV-I 214 W/m 28,2 km/h (4 Bft)
30.08.2014 12:22 17,6 C 17,2 C 88 % 1016,2 hPa 0,0 l/m 0 min 0 min 1,3 UV-I 250 W/m 35,4 km/h (5 Bft)
30.08.2014 12:24 17,6 C 17,2 C 88 % 1016,1 hPa 0,0 l/m 0 min 0 min 1,4 UV-I 287 W/m 53,0 km/h (7 Bft)
30.08.2014 12:26 17,7 C 17,8 C 88 % 1016,1 hPa 0,0 l/m 0 min 0 min 1,6 UV-I 311 W/m 35,4 km/h (5 Bft)
30.08.2014 12:28 17,8 C 17,8 C 87 % 1016,1 hPa 0,0 l/m 0 min 0 min 1,4 UV-I 281 W/m 35,4 km/h (5 Bft)
30.08.2014 12:30 17,8 C 17,8 C 87 % 1016,1 hPa 0,0 l/m 0 min 0 min 1,3 UV-I 263 W/m 35,4 km/h (5 Bft)
30.08.2014 12:32 17,9 C 17,8 C 87 % 1016,1 hPa 0,0 l/m 0 min 0 min 1,3 UV-I 242 W/m 46,0 km/h (6 Bft)
30.08.2014 12:34 17,9 C 17,8 C 87 % 1016,0 hPa 0,0 l/m 0 min 0 min 1,1 UV-I 219 W/m 46,0 km/h (6 Bft)
30.08.2014 12:36 18,0 C 17,8 C 86 % 1016,0 hPa 0,0 l/m 0 min 0 min 1,4 UV-I 256 W/m 42,4 km/h (6 Bft)
30.08.2014 12:38 18,1 C 17,8 C 86 % 1016,0 hPa 0,0 l/m 0 min 0 min 1,2 UV-I 243 W/m 49,5 km/h (6 Bft)
30.08.2014 12:40 18,1 C 17,8 C 86 % 1016,0 hPa 0,0 l/m 0 min 0 min 1,1 UV-I 236 W/m 24,7 km/h (4 Bft)
30.08.2014 12:42 18,2 C 17,8 C 86 % 1016,0 hPa 0,0 l/m 0 min 0 min 0,9 UV-I 202 W/m 38,9 km/h (6 Bft)
30.08.2014 12:44 18,2 C 17,8 C 85 % 1016,0 hPa 0,0 l/m 0 min 0 min 0,8 UV-I 185 W/m 46,0 km/h (6 Bft)
30.08.2014 12:46 18,2 C 17,8 C 85 % 1015,9 hPa 0,0 l/m 0 min 0 min 1,2 UV-I 241 W/m 46,0 km/h (6 Bft)
30.08.2014 12:48 18,3 C 17,8 C 85 % 1015,8 hPa 0,0 l/m 0 min 0 min 1,8 UV-I 332 W/m 38,9 km/h (6 Bft)
30.08.2014 12:50 18,3 C 17,8 C 85 % 1015,8 hPa 0,0 l/m 0 min 0 min 1,9 UV-I 347 W/m 63,7 km/h (8 Bft)
30.08.2014 12:52 18,4 C 18,3 C 85 % 1015,8 hPa 0,0 l/m 0 min 0 min 1,8 UV-I 307 W/m 53,0 km/h (7 Bft)
30.08.2014 12:54 18,4 C 18,3 C 84 % 1015,8 hPa 0,0 l/m 0 min 0 min 1,9 UV-I 326 W/m 42,4 km/h (6 Bft)
30.08.2014 12:56 18,5 C 18,3 C 84 % 1015,8 hPa 0,0 l/m 0 min 0 min 1,6 UV-I 300 W/m 42,4 km/h (6 Bft)
30.08.2014 12:58 18,6 C 18,3 C 84 % 1015,7 hPa 0,0 l/m 0 min 0 min 1,4 UV-I 270 W/m 46,0 km/h (6 Bft)
30.08.2014 13:00 18,6 C 17,8 C 84 % 1015,7 hPa 0,0 l/m 0 min 0 min 0,9 UV-I 198 W/m 42,4 km/h (6 Bft)
30.08.2014 13:02 18,7 C 17,8 C 84 % 1015,8 hPa 0,0 l/m 0 min 0 min 1,1 UV-I 226 W/m 31,7 km/h (5 Bft)
30.08.2014 13:04 18,7 C 17,8 C 84 % 1015,8 hPa 0,0 l/m 0 min 0 min 1,1 UV-I 236 W/m 67,1 km/h (8 Bft)
30.08.2014 13:06 18,7 C 17,8 C 84 % 1015,8 hPa 0,0 l/m 0 min 0 min 0,8 UV-I 202 W/m 49,5 km/h (6 Bft)
30.08.2014 13:08 18,8 C 17,8 C 84 % 1015,7 hPa 0,0 l/m 0 min 0 min 0,8 UV-I 203 W/m 31,7 km/h (5 Bft)
30.08.2014 13:10 18,8 C 17,8 C 84 % 1015,8 hPa 0,0 l/m 0 min 0 min 0,7 UV-I 182 W/m 53,0 km/h (7 Bft)
30.08.2014 13:12 18,8 C 17,8 C 83 % 1015,7 hPa 0,0 l/m 0 min 0 min 0,9 UV-I 208 W/m 60,2 km/h (7 Bft)
30.08.2014 13:14 18,8 C 17,8 C 83 % 1015,8 hPa 0,0 l/m 0 min 0 min 1,1 UV-I 229 W/m 74,2 km/h (8 Bft)
30.08.2014 13:16 18,8 C 17,8 C 83 % 1015,7 hPa 0,0 l/m 0 min 0 min 0,8 UV-I 187 W/m 53,0 km/h (7 Bft)
30.08.2014 13:18 18,8 C 17,8 C 83 % 1015,8 hPa 0,0 l/m 0 min 0 min 0,5 UV-I 140 W/m 35,4 km/h (5 Bft)
30.08.2014 13:20 18,8 C 17,2 C 83 % 1015,8 hPa 0,0 l/m 0 min 0 min 0,4 UV-I 146 W/m 46,0 km/h (6 Bft)
30.08.2014 13:22 18,8 C 17,8 C 83 % 1015,7 hPa 0,0 l/m 0 min 0 min 0,7 UV-I 171 W/m 31,7 km/h (5 Bft)
30.08.2014 13:24 18,8 C 17,8 C 83 % 1015,7 hPa 0,0 l/m 0 min 0 min 1,0 UV-I 224 W/m 46,0 km/h (6 Bft)
30.08.2014 13:26 18,8 C 17,8 C 83 % 1015,7 hPa 0,0 l/m 0 min 0 min 1,5 UV-I 286 W/m 38,9 km/h (6 Bft)
30.08.2014 13:28 18,8 C 18,3 C 82 % 1015,7 hPa 0,0 l/m 0 min 0 min 1,7 UV-I 319 W/m 49,5 km/h (6 Bft)
30.08.2014 13:30 18,8 C 18,3 C 82 % 1015,8 hPa 0,0 l/m 0 min 0 min 1,7 UV-I 321 W/m 60,2 km/h (7 Bft)
30.08.2014 13:32 18,8 C 18,3 C 82 % 1015,6 hPa 0,0 l/m 0 min 0 min 1,8 UV-I 351 W/m 53,0 km/h (7 Bft)
30.08.2014 13:34 18,9 C 18,3 C 83 % 1015,7 hPa 0,0 l/m 0 min 0 min 1,8 UV-I 345 W/m 60,2 km/h (7 Bft)
30.08.2014 13:36 18,9 C 18,3 C 82 % 1015,6 hPa 0,0 l/m 0 min 0 min 1,5 UV-I 296 W/m 56,5 km/h (7 Bft)
30.08.2014 13:38 18,9 C 18,3 C 82 % 1015,6 hPa 0,0 l/m 0 min 0 min 1,3 UV-I 249 W/m 49,5 km/h (6 Bft)
30.08.2014 13:40 18,9 C 18,3 C 82 % 1015,7 hPa 0,0 l/m 0 min 0 min 0,7 UV-I 176 W/m 49,5 km/h (6 Bft)
30.08.2014 13:42 19,0 C 17,8 C 82 % 1015,7 hPa 0,0 l/m 0 min 0 min 0,6 UV-I 158 W/m 46,0 km/h (6 Bft)
30.08.2014 13:44 19,0 C 17,8 C 82 % 1015,7 hPa 0,0 l/m 0 min 0 min 0,3 UV-I 138 W/m 49,5 km/h (6 Bft)
30.08.2014 13:46 19,0 C 17,8 C 82 % 1015,8 hPa 0,0 l/m 0 min 0 min 0,0 UV-I 116 W/m 49,5 km/h (6 Bft)
30.08.2014 13:48 18,9 C 17,8 C 82 % 1015,8 hPa 0,0 l/m 0 min 0 min 0,0 UV-I 114 W/m 42,4 km/h (6 Bft)
30.08.2014 13:50 18,9 C 17,2 C 82 % 1015,7 hPa 0,0 l/m 0 min 0 min 0,4 UV-I 138 W/m 60,2 km/h (7 Bft)
30.08.2014 13:52 18,9 C 17,2 C 82 % 1015,8 hPa 0,0 l/m 0 min 0 min 0,0 UV-I 115 W/m 56,5 km/h (7 Bft)
30.08.2014 13:54 18,9 C 17,2 C 82 % 1015,8 hPa 0,0 l/m 0 min 0 min 0,0 UV-I 89 W/m 35,4 km/h (5 Bft)
30.08.2014 13:56 18,9 C 17,2 C 82 % 1015,8 hPa 0,0 l/m 0 min 0 min 0,0 UV-I 81 W/m 53,0 km/h (7 Bft)
30.08.2014 13:58 18,8 C 17,2 C 82 % 1015,8 hPa 0,0 l/m 0 min 0 min 0,0 UV-I 115 W/m 35,4 km/h (5 Bft)
30.08.2014 14:00 18,8 C 17,2 C 82 % 1015,8 hPa 0,0 l/m 0 min 0 min 0,0 UV-I 125 W/m 46,0 km/h (6 Bft)
30.08.2014 14:02 18,8 C 17,2 C 82 % 1015,9 hPa 0,0 l/m 0 min 0 min 0,0 UV-I 126 W/m 35,4 km/h (5 Bft)
30.08.2014 14:04 18,8 C 17,2 C 82 % 1015,8 hPa 0,0 l/m 0 min 0 min 0,1 UV-I 140 W/m 38,9 km/h (6 Bft)
30.08.2014 14:06 18,8 C 17,2 C 83 % 1015,8 hPa 0,0 l/m 0 min 0 min 0,6 UV-I 161 W/m 35,4 km/h (5 Bft)
30.08.2014 14:08 18,8 C 17,8 C 83 % 1015,7 hPa 0,0 l/m 0 min 0 min 0,9 UV-I 211 W/m 46,0 km/h (6 Bft)
30.08.2014 14:10 18,8 C 17,8 C 83 % 1015,7 hPa 0,0 l/m 0 min 0 min 0,9 UV-I 203 W/m 24,7 km/h (4 Bft)
30.08.2014 14:12 18,8 C 17,8 C 83 % 1015,7 hPa 0,0 l/m 0 min 0 min 0,6 UV-I 163 W/m 28,2 km/h (4 Bft)
30.08.2014 14:14 18,8 C 17,8 C 84 % 1015,7 hPa 0,0 l/m 0 min 0 min 0,7 UV-I 190 W/m 31,7 km/h (5 Bft)
30.08.2014 14:16 18,9 C 18,3 C 84 % 1015,7 hPa 0,0 l/m 0 min 0 min 1,0 UV-I 221 W/m 38,9 km/h (6 Bft)
30.08.2014 14:18 18,9 C 18,3 C 84 % 1015,6 hPa 0,0 l/m 0 min 0 min 1,3 UV-I 249 W/m 24,7 km/h (4 Bft)
30.08.2014 14:20 19,0 C 18,3 C 84 % 1015,6 hPa 0,0 l/m 0 min 0 min 0,9 UV-I 197 W/m 28,2 km/h (4 Bft)
30.08.2014 14:22 19,0 C 18,3 C 83 % 1015,7 hPa 0,0 l/m 0 min 0 min 0,5 UV-I 157 W/m 49,5 km/h (6 Bft)
30.08.2014 14:24 19,1 C 18,3 C 83 % 1015,7 hPa 0,0 l/m 0 min 0 min 0,3 UV-I 147 W/m 28,2 km/h (4 Bft)
30.08.2014 14:26 19,1 C 17,8 C 83 % 1015,7 hPa 0,0 l/m 0 min 0 min 0,0 UV-I 134 W/m 35,4 km/h (5 Bft)
30.08.2014 14:28 19,1 C 17,8 C 83 % 1015,7 hPa 0,0 l/m 0 min 0 min 0,0 UV-I 127 W/m 46,0 km/h (6 Bft)
30.08.2014 14:30 19,1 C 17,8 C 83 % 1015,6 hPa 0,0 l/m 0 min 0 min 0,2 UV-I 138 W/m 38,9 km/h (6 Bft)
30.08.2014 14:32 19,1 C 17,8 C 83 % 1015,7 hPa 0,0 l/m 0 min 0 min 0,6 UV-I 157 W/m 35,4 km/h (5 Bft)
30.08.2014 14:34 19,1 C 18,3 C 83 % 1015,7 hPa 0,0 l/m 0 min 0 min 1,1 UV-I 225 W/m 49,5 km/h (6 Bft)
30.08.2014 14:36 19,1 C 18,3 C 83 % 1015,7 hPa 0,0 l/m 0 min 0 min 1,0 UV-I 212 W/m 46,0 km/h (6 Bft)
30.08.2014 14:38 19,1 C 17,8 C 82 % 1015,7 hPa 0,0 l/m 0 min 0 min 0,7 UV-I 174 W/m 46,0 km/h (6 Bft)
30.08.2014 14:40 19,1 C 17,8 C 82 % 1015,6 hPa 0,0 l/m 0 min 0 min 0,7 UV-I 184 W/m 49,5 km/h (6 Bft)
30.08.2014 14:42 19,1 C 17,8 C 82 % 1015,6 hPa 0,0 l/m 0 min 0 min 0,8 UV-I 216 W/m 56,5 km/h (7 Bft)
30.08.2014 14:44 19,1 C 17,8 C 82 % 1015,6 hPa 0,0 l/m 0 min 0 min 0,9 UV-I 207 W/m 46,0 km/h (6 Bft)
30.08.2014 14:46 19,1 C 17,8 C 82 % 1015,7 hPa 0,0 l/m 0 min 0 min 0,2 UV-I 142 W/m 53,0 km/h (7 Bft)
30.08.2014 14:48 19,1 C 17,8 C 82 % 1015,7 hPa 0,0 l/m 0 min 0 min 0,0 UV-I 131 W/m 74,2 km/h (8 Bft)
30.08.2014 14:50 19,1 C 17,8 C 82 % 1015,6 hPa 0,0 l/m 0 min 0 min 0,3 UV-I 168 W/m 49,5 km/h (6 Bft)
30.08.2014 14:52 19,1 C 17,8 C 82 % 1015,7 hPa 0,0 l/m 0 min 0 min 0,8 UV-I 206 W/m 60,2 km/h (7 Bft)
30.08.2014 14:54 19,1 C 17,8 C 82 % 1015,7 hPa 0,0 l/m 0 min 0 min 0,3 UV-I 155 W/m 38,9 km/h (6 Bft)
30.08.2014 14:56 19,1 C 17,8 C 82 % 1015,6 hPa 0,0 l/m 0 min 0 min 0,3 UV-I 146 W/m 46,0 km/h (6 Bft)
30.08.2014 14:58 19,1 C 17,8 C 82 % 1015,6 hPa 0,0 l/m 0 min 0 min 0,6 UV-I 163 W/m 56,5 km/h (7 Bft)
30.08.2014 15:00 19,1 C 17,8 C 82 % 1015,7 hPa 0,0 l/m 0 min 0 min 0,9 UV-I 202 W/m 49,5 km/h (6 Bft)
30.08.2014 15:02 19,1 C 17,8 C 82 % 1015,6 hPa 0,0 l/m 0 min 0 min 1,0 UV-I 234 W/m 63,7 km/h (8 Bft)
30.08.2014 15:04 19,1 C 18,3 C 82 % 1015,6 hPa 0,0 l/m 0 min 0 min 1,3 UV-I 294 W/m 38,9 km/h (6 Bft)
30.08.2014 15:06 19,1 C 18,9 C 82 % 1015,6 hPa 0,0 l/m 2 min 0 min 1,6 UV-I 354 W/m 31,7 km/h (5 Bft)
30.08.2014 15:08 19,2 C 18,9 C 83 % 1015,6 hPa 0,0 l/m 2 min 0 min 1,7 UV-I 371 W/m 28,2 km/h (4 Bft)
30.08.2014 15:10 19,3 C 19,4 C 83 % 1015,5 hPa 0,0 l/m 2 min 0 min 1,6 UV-I 336 W/m 21,3 km/h (4 Bft)
30.08.2014 15:12 19,4 C 18,9 C 83 % 1015,5 hPa 0,0 l/m 0 min 0 min 1,1 UV-I 235 W/m 35,4 km/h (5 Bft)
30.08.2014 15:14 19,4 C 18,9 C 83 % 1015,5 hPa 0,0 l/m 0 min 0 min 0,6 UV-I 169 W/m 53,0 km/h (7 Bft)
30.08.2014 15:16 19,4 C 18,3 C 82 % 1015,5 hPa 0,0 l/m 0 min 0 min 0,2 UV-I 132 W/m 46,0 km/h (6 Bft)
30.08.2014 15:18 19,5 C 18,3 C 82 % 1015,5 hPa 0,0 l/m 0 min 0 min 0,0 UV-I 110 W/m 49,5 km/h (6 Bft)
30.08.2014 15:20 19,4 C 17,8 C 81 % 1015,5 hPa 0,0 l/m 0 min 0 min 0,0 UV-I 86 W/m 53,0 km/h (7 Bft)
30.08.2014 15:22 19,4 C 17,8 C 81 % 1015,5 hPa 0,0 l/m 0 min 0 min 0,0 UV-I 89 W/m 53,0 km/h (7 Bft)
30.08.2014 15:24 19,3 C 17,8 C 81 % 1015,5 hPa 0,0 l/m 0 min 0 min 0,0 UV-I 90 W/m 60,2 km/h (7 Bft)
30.08.2014 15:26 19,3 C 17,8 C 81 % 1015,4 hPa 0,0 l/m 0 min 0 min 0,1 UV-I 150 W/m 42,4 km/h (6 Bft)
30.08.2014 15:28 19,3 C 17,8 C 81 % 1015,4 hPa 0,0 l/m 0 min 0 min 0,8 UV-I 193 W/m 35,4 km/h (5 Bft)
30.08.2014 15:30 19,3 C 18,3 C 81 % 1015,3 hPa 0,0 l/m 0 min 0 min 1,1 UV-I 249 W/m 53,0 km/h (7 Bft)
30.08.2014 15:32 19,3 C 18,3 C 81 % 1015,2 hPa 0,0 l/m 0 min 0 min 1,3 UV-I 294 W/m 42,4 km/h (6 Bft)
30.08.2014 15:34 19,3 C 18,3 C 82 % 1015,2 hPa 0,0 l/m 0 min 0 min 1,3 UV-I 287 W/m 28,2 km/h (4 Bft)
30.08.2014 15:36 19,3 C 18,9 C 82 % 1015,3 hPa 0,0 l/m 2 min 0 min 1,5 UV-I 331 W/m 24,7 km/h (4 Bft)
30.08.2014 15:38 19,4 C 18,9 C 82 % 1015,2 hPa 0,0 l/m 2 min 0 min 1,9 UV-I 429 W/m 49,5 km/h (6 Bft)
30.08.2014 15:40 19,5 C 19,4 C 82 % 1015,2 hPa 0,0 l/m 2 min 0 min 2,1 UV-I 490 W/m 63,7 km/h (8 Bft)
30.08.2014 15:42 19,6 C 19,4 C 82 % 1015,2 hPa 0,0 l/m 2 min 0 min 1,7 UV-I 368 W/m 60,2 km/h (7 Bft)
30.08.2014 15:44 19,6 C 18,9 C 81 % 1015,2 hPa 0,0 l/m 0 min 0 min 1,4 UV-I 285 W/m 42,4 km/h (6 Bft)
30.08.2014 15:46 19,7 C 19,4 C 81 % 1015,2 hPa 0,0 l/m 0 min 0 min 1,0 UV-I 252 W/m 38,9 km/h (6 Bft)
30.08.2014 15:48 19,7 C 18,9 C 81 % 1015,1 hPa 0,0 l/m 0 min 0 min 0,9 UV-I 232 W/m 35,4 km/h (5 Bft)
30.08.2014 15:50 19,8 C 18,9 C 81 % 1015,1 hPa 0,0 l/m 0 min 0 min 0,2 UV-I 151 W/m 49,5 km/h (6 Bft)
30.08.2014 15:52 19,8 C 18,9 C 81 % 1015,2 hPa 0,0 l/m 0 min 0 min 0,0 UV-I 112 W/m 31,7 km/h (5 Bft)
30.08.2014 15:54 19,8 C 18,3 C 81 % 1015,2 hPa 0,0 l/m 0 min 0 min 0,0 UV-I 98 W/m 31,7 km/h (5 Bft)
30.08.2014 15:56 19,8 C 18,3 C 81 % 1015,2 hPa 0,0 l/m 0 min 0 min 0,0 UV-I 105 W/m 46,0 km/h (6 Bft)
30.08.2014 15:58 19,8 C 17,8 C 80 % 1015,1 hPa 0,0 l/m 0 min 0 min 0,0 UV-I 103 W/m 60,2 km/h (7 Bft)
30.08.2014 16:00 19,7 C 17,8 C 80 % 1015,2 hPa 0,0 l/m 0 min 0 min 0,0 UV-I 127 W/m 60,2 km/h (7 Bft)
30.08.2014 16:02 19,6 C 17,8 C 80 % 1015,2 hPa 0,0 l/m 0 min 0 min 0,0 UV-I 125 W/m 60,2 km/h (7 Bft)
30.08.2014 16:04 19,6 C 17,8 C 80 % 1015,1 hPa 0,0 l/m 0 min 0 min 0,0 UV-I 132 W/m 46,0 km/h (6 Bft)
30.08.2014 16:06 19,6 C 17,8 C 80 % 1015,2 hPa 0,0 l/m 0 min 0 min 0,0 UV-I 122 W/m 38,9 km/h (6 Bft)
30.08.2014 16:08 19,5 C 17,8 C 81 % 1015,2 hPa 0,0 l/m 0 min 0 min 0,0 UV-I 119 W/m 49,5 km/h (6 Bft)
30.08.2014 16:10 19,4 C 17,8 C 81 % 1015,2 hPa 0,0 l/m 0 min 0 min 0,0 UV-I 121 W/m 60,2 km/h (7 Bft)
30.08.2014 16:12 19,4 C 17,8 C 81 % 1015,3 hPa 0,0 l/m 0 min 0 min 0,0 UV-I 108 W/m 46,0 km/h (6 Bft)
30.08.2014 16:14 19,4 C 17,8 C 81 % 1015,3 hPa 0,0 l/m 0 min 0 min 0,0 UV-I 89 W/m 46,0 km/h (6 Bft)
30.08.2014 16:16 19,3 C 17,8 C 81 % 1015,3 hPa 0,0 l/m 0 min 0 min 0,0 UV-I 136 W/m 38,9 km/h (6 Bft)
30.08.2014 16:18 19,3 C 17,8 C 81 % 1015,3 hPa 0,0 l/m 0 min 0 min 0,0 UV-I 156 W/m 42,4 km/h (6 Bft)
30.08.2014 16:20 19,3 C 18,3 C 82 % 1015,3 hPa 0,0 l/m 0 min 0 min 0,2 UV-I 164 W/m 53,0 km/h (7 Bft)
30.08.2014 16:22 19,3 C 18,3 C 81 % 1015,3 hPa 0,0 l/m 0 min 0 min 0,0 UV-I 156 W/m 56,5 km/h (7 Bft)
30.08.2014 16:24 19,3 C 18,3 C 81 % 1015,2 hPa 0,0 l/m 0 min 0 min 0,0 UV-I 148 W/m 60,2 km/h (7 Bft)
30.08.2014 16:26 19,3 C 18,3 C 81 % 1015,2 hPa 0,0 l/m 0 min 0 min 0,2 UV-I 172 W/m 42,4 km/h (6 Bft)
30.08.2014 16:28 19,3 C 18,3 C 82 % 1015,2 hPa 0,0 l/m 0 min 0 min 0,6 UV-I 182 W/m 38,9 km/h (6 Bft)
30.08.2014 16:30 19,3 C 17,8 C 82 % 1015,2 hPa 0,0 l/m 0 min 0 min 0,0 UV-I 119 W/m 35,4 km/h (5 Bft)
30.08.2014 16:32 19,2 C 17,8 C 82 % 1015,2 hPa 0,0 l/m 0 min 0 min 0,0 UV-I 104 W/m 38,9 km/h (6 Bft)
30.08.2014 16:34 19,2 C 17,8 C 82 % 1015,2 hPa 0,0 l/m 0 min 0 min 0,0 UV-I 119 W/m 38,9 km/h (6 Bft)
30.08.2014 16:36 19,2 C 17,8 C 82 % 1015,2 hPa 0,0 l/m 0 min 0 min 0,0 UV-I 128 W/m 31,7 km/h (5 Bft)
30.08.2014 16:38 19,2 C 17,8 C 82 % 1015,2 hPa 0,0 l/m 0 min 0 min 0,0 UV-I 124 W/m 38,9 km/h (6 Bft)
30.08.2014 16:40 19,2 C 17,8 C 82 % 1015,2 hPa 0,0 l/m 0 min 0 min 0,0 UV-I 104 W/m 38,9 km/h (6 Bft)
30.08.2014 16:42 19,2 C 17,8 C 82 % 1015,2 hPa 0,0 l/m 0 min 0 min 0,0 UV-I 105 W/m 53,0 km/h (7 Bft)
30.08.2014 16:44 19,2 C 17,8 C 82 % 1015,1 hPa 0,0 l/m 0 min 0 min 0,0 UV-I 114 W/m 42,4 km/h (6 Bft)
30.08.2014 16:46 19,1 C 17,8 C 82 % 1015,1 hPa 0,0 l/m 0 min 0 min 0,0 UV-I 164 W/m 42,4 km/h (6 Bft)
30.08.2014 16:48 19,1 C 17,8 C 82 % 1015,1 hPa 0,0 l/m 0 min 0 min 0,3 UV-I 191 W/m 28,2 km/h (4 Bft)
30.08.2014 16:50 19,1 C 18,3 C 82 % 1015,1 hPa 0,0 l/m 0 min 0 min 0,3 UV-I 190 W/m 35,4 km/h (5 Bft)
30.08.2014 16:52 19,2 C 18,3 C 82 % 1015,1 hPa 0,0 l/m 0 min 0 min 0,0 UV-I 181 W/m 35,4 km/h (5 Bft)
30.08.2014 16:54 19,2 C 18,3 C 82 % 1015,0 hPa 0,0 l/m 0 min 0 min 0,0 UV-I 168 W/m 42,4 km/h (6 Bft)
30.08.2014 16:56 19,2 C 18,3 C 82 % 1014,9 hPa 0,0 l/m 0 min 0 min 0,0 UV-I 158 W/m 46,0 km/h (6 Bft)
30.08.2014 16:58 19,2 C 18,3 C 82 % 1014,9 hPa 0,0 l/m 0 min 0 min 0,0 UV-I 150 W/m 24,7 km/h (4 Bft)
30.08.2014 17:00 19,2 C 18,3 C 83 % 1014,9 hPa 0,0 l/m 0 min 0 min 0,0 UV-I 134 W/m 31,7 km/h (5 Bft)
30.08.2014 17:02 19,2 C 17,8 C 82 % 1014,9 hPa 0,0 l/m 0 min 0 min 0,0 UV-I 119 W/m 28,2 km/h (4 Bft)
30.08.2014 17:04 19,2 C 17,8 C 83 % 1014,9 hPa 0,0 l/m 0 min 0 min 0,0 UV-I 111 W/m 38,9 km/h (6 Bft)
30.08.2014 17:06 19,2 C 17,8 C 82 % 1014,9 hPa 0,0 l/m 0 min 0 min 0,0 UV-I 79 W/m 49,5 km/h (6 Bft)
30.08.2014 17:08 19,1 C 17,8 C 82 % 1015,0 hPa 0,0 l/m 0 min 0 min 0,0 UV-I 52 W/m 35,4 km/h (5 Bft)
30.08.2014 17:10 19,1 C 17,2 C 82 % 1015,0 hPa 0,0 l/m 0 min 0 min 0,0 UV-I 41 W/m 46,0 km/h (6 Bft)
30.08.2014 17:12 19,1 C 17,2 C 82 % 1015,0 hPa 0,0 l/m 0 min 0 min 0,0 UV-I 50 W/m 42,4 km/h (6 Bft)
30.08.2014 17:14 19,0 C 17,2 C 83 % 1015,1 hPa 0,0 l/m 0 min 0 min 0,0 UV-I 74 W/m 35,4 km/h (5 Bft)
30.08.2014 17:16 19,0 C 17,2 C 83 % 1015,1 hPa 0,0 l/m 0 min 0 min 0,0 UV-I 77 W/m 35,4 km/h (5 Bft)
30.08.2014 17:18 18,9 C 17,2 C 82 % 1015,1 hPa 0,0 l/m 0 min 0 min 0,0 UV-I 64 W/m 28,2 km/h (4 Bft)
30.08.2014 17:20 18,9 C 17,2 C 83 % 1015,2 hPa 0,0 l/m 0 min 0 min 0,0 UV-I 54 W/m 56,5 km/h (7 Bft)
30.08.2014 17:22 18,9 C 17,2 C 83 % 1015,1 hPa 0,0 l/m 0 min 0 min 0,0 UV-I 44 W/m 42,4 km/h (6 Bft)
30.08.2014 17:24 18,9 C 17,2 C 83 % 1015,1 hPa 0,0 l/m 0 min 0 min 0,0 UV-I 31 W/m 21,3 km/h (4 Bft)
30.08.2014 17:26 18,8 C 17,2 C 83 % 1015,1 hPa 0,0 l/m 0 min 0 min 0,0 UV-I 25 W/m 28,2 km/h (4 Bft)
30.08.2014 17:28 18,8 C 16,7 C 83 % 1015,1 hPa 0,0 l/m 0 min 0 min 0,0 UV-I 20 W/m 24,7 km/h (4 Bft)
30.08.2014 17:30 18,8 C 16,7 C 83 % 1015,1 hPa 0,0 l/m 0 min 0 min 0,0 UV-I 29 W/m 38,9 km/h (6 Bft)
30.08.2014 17:32 18,7 C 16,7 C 83 % 1015,0 hPa 0,0 l/m 0 min 0 min 0,0 UV-I 54 W/m 31,7 km/h (5 Bft)
30.08.2014 17:34 18,7 C 17,2 C 83 % 1015,0 hPa 0,0 l/m 0 min 0 min 0,0 UV-I 65 W/m 24,7 km/h (4 Bft)
30.08.2014 17:36 18,7 C 17,2 C 84 % 1015,0 hPa 0,0 l/m 0 min 0 min 0,0 UV-I 61 W/m 28,2 km/h (4 Bft)
30.08.2014 17:38 18,7 C 17,2 C 84 % 1015,0 hPa 0,0 l/m 0 min 0 min 0,0 UV-I 56 W/m 28,2 km/h (4 Bft)
30.08.2014 17:40 18,6 C 17,2 C 84 % 1015,0 hPa 0,0 l/m 0 min 0 min 0,0 UV-I 57 W/m 60,2 km/h (7 Bft)
30.08.2014 17:42 18,6 C 17,2 C 84 % 1015,0 hPa 0,0 l/m 0 min 0 min 0,0 UV-I 55 W/m 42,4 km/h (6 Bft)
30.08.2014 17:43 18,6 C 17,2 C 84 % 1015,0 hPa 0,0 l/m 0 min 0 min 0,0 UV-I 54 W/m 24,7 km/h (4 Bft)
30.08.2014 17:44 18,6 C 17,2 C 84 % 1015,0 hPa 0,0 l/m 0 min 0 min 0,0 UV-I 60 W/m 17,7 km/h (3 Bft)
30.08.2014 17:46 18,6 C 17,2 C 84 % 1014,9 hPa 0,0 l/m 0 min 0 min 0,0 UV-I 63 W/m 14,2 km/h (3 Bft)
30.08.2014 17:48 18,6 C 17,2 C 84 % 1014,9 hPa 0,0 l/m 0 min 0 min 0,0 UV-I 65 W/m 42,4 km/h (6 Bft)
30.08.2014 17:50 18,5 C 17,2 C 84 % 1014,8 hPa 0,0 l/m 0 min 0 min 0,0 UV-I 60 W/m 42,4 km/h (6 Bft)
30.08.2014 17:52 18,5 C 17,2 C 84 % 1014,9 hPa 0,0 l/m 0 min 0 min 0,0 UV-I 61 W/m 24,7 km/h (4 Bft)
30.08.2014 17:54 18,5 C 17,2 C 84 % 1014,8 hPa 0,0 l/m 0 min 0 min 0,0 UV-I 63 W/m 28,2 km/h (4 Bft)
30.08.2014 17:56 18,5 C 17,2 C 84 % 1014,8 hPa 0,0 l/m 0 min 0 min 0,0 UV-I 55 W/m 38,9 km/h (6 Bft)
30.08.2014 17:58 18,4 C 17,2 C 84 % 1014,8 hPa 0,0 l/m 0 min 0 min 0,0 UV-I 62 W/m 38,9 km/h (6 Bft)
30.08.2014 18:00 18,4 C 17,2 C 84 % 1014,8 hPa 0,0 l/m 0 min 0 min 0,0 UV-I 68 W/m 31,7 km/h (5 Bft)
30.08.2014 18:02 18,4 C 17,2 C 84 % 1014,7 hPa 0,0 l/m 0 min 0 min 0,0 UV-I 57 W/m 35,4 km/h (5 Bft)
30.08.2014 18:06 18,4 C 16,7 C 84 % 1014,7 hPa 0,0 l/m 0 min 0 min 0,0 UV-I 50 W/m 46,0 km/h (6 Bft)
30.08.2014 18:08 18,4 C 16,7 C 84 % 1014,8 hPa 0,0 l/m 0 min 0 min 0,0 UV-I 47 W/m 31,7 km/h (5 Bft)
30.08.2014 18:10 18,4 C 16,7 C 84 % 1014,8 hPa 0,0 l/m 0 min 0 min 0,0 UV-I 61 W/m 49,5 km/h (6 Bft)
30.08.2014 18:12 18,4 C 16,7 C 84 % 1014,7 hPa 0,0 l/m 0 min 0 min 0,0 UV-I 69 W/m 46,0 km/h (6 Bft)
30.08.2014 18:14 18,4 C 16,7 C 84 % 1014,7 hPa 0,0 l/m 0 min 0 min 0,0 UV-I 72 W/m 35,4 km/h (5 Bft)
30.08.2014 18:16 18,4 C 16,7 C 84 % 1014,7 hPa 0,0 l/m 0 min 2 min 0,0 UV-I 66 W/m 31,7 km/h (5 Bft)
30.08.2014 18:18 18,3 C 16,7 C 85 % 1014,7 hPa 0,0 l/m 0 min 2 min 0,0 UV-I 54 W/m 38,9 km/h (6 Bft)
30.08.2014 18:20 18,3 C 16,7 C 85 % 1014,7 hPa 0,0 l/m 0 min 0 min 0,0 UV-I 41 W/m 28,2 km/h (4 Bft)
30.08.2014 18:22 18,4 C 16,7 C 85 % 1014,7 hPa 0,0 l/m 0 min 2 min 0,0 UV-I 39 W/m 24,7 km/h (4 Bft)
30.08.2014 18:24 18,3 C 16,7 C 85 % 1014,7 hPa 0,0 l/m 0 min 2 min 0,0 UV-I 34 W/m 35,4 km/h (5 Bft)
30.08.2014 18:26 18,3 C 16,1 C 85 % 1014,7 hPa 0,0 l/m 0 min 2 min 0,0 UV-I 31 W/m 31,7 km/h (5 Bft)
30.08.2014 18:28 18,3 C 16,1 C 85 % 1014,7 hPa 0,0 l/m 0 min 2 min 0,0 UV-I 26 W/m 31,7 km/h (5 Bft)
30.08.2014 18:30 18,3 C 15,6 C 85 % 1014,7 hPa 0,2 l/m 0 min 2 min 0,0 UV-I 22 W/m 28,2 km/h (4 Bft)
30.08.2014 18:32 18,3 C 15,0 C 85 % 1014,7 hPa 0,0 l/m 0 min 2 min 0,0 UV-I 21 W/m 31,7 km/h (5 Bft)
30.08.2014 18:34 18,3 C 15,0 C 86 % 1014,9 hPa 0,4 l/m 0 min 2 min 0,0 UV-I 13 W/m 35,4 km/h (5 Bft)
30.08.2014 18:36 18,3 C 15,0 C 87 % 1015,1 hPa 0,8 l/m 0 min 2 min 0,0 UV-I 13 W/m 42,4 km/h (6 Bft)
30.08.2014 18:38 18,2 C 15,0 C 87 % 1015,1 hPa 0,2 l/m 0 min 2 min 0,0 UV-I 16 W/m 42,4 km/h (6 Bft)
30.08.2014 18:40 18,2 C 15,0 C 88 % 1015,1 hPa 0,2 l/m 0 min 2 min 0,0 UV-I 19 W/m 24,7 km/h (4 Bft)
30.08.2014 18:42 18,1 C 15,0 C 88 % 1015,1 hPa 0,2 l/m 0 min 2 min 0,0 UV-I 20 W/m 28,2 km/h (4 Bft)
30.08.2014 18:44 18,0 C 15,0 C 88 % 1015,0 hPa 0,2 l/m 0 min 2 min 0,0 UV-I 23 W/m 38,9 km/h (6 Bft)
30.08.2014 18:46 17,9 C 15,0 C 89 % 1015,0 hPa 0,2 l/m 0 min 2 min 0,0 UV-I 26 W/m 38,9 km/h (6 Bft)
30.08.2014 18:48 17,8 C 15,0 C 89 % 1015,0 hPa 0,0 l/m 0 min 2 min 0,0 UV-I 26 W/m 28,2 km/h (4 Bft)
30.08.2014 18:50 17,7 C 15,0 C 89 % 1015,1 hPa 0,2 l/m 0 min 2 min 0,0 UV-I 25 W/m 17,7 km/h (3 Bft)
30.08.2014 18:52 17,6 C 15,0 C 89 % 1015,0 hPa 0,0 l/m 0 min 2 min 0,0 UV-I 21 W/m 17,7 km/h (3 Bft)
30.08.2014 18:54 17,5 C 15,0 C 90 % 1015,0 hPa 0,0 l/m 0 min 2 min 0,0 UV-I 17 W/m 31,7 km/h (5 Bft)
30.08.2014 18:56 17,4 C 14,4 C 90 % 1015,0 hPa 0,2 l/m 0 min 2 min 0,0 UV-I 16 W/m 24,7 km/h (4 Bft)
30.08.2014 18:58 17,3 C 14,4 C 90 % 1014,8 hPa 0,0 l/m 0 min 2 min 0,0 UV-I 13 W/m 35,4 km/h (5 Bft)
30.08.2014 19:00 17,1 C 14,4 C 90 % 1014,9 hPa 0,2 l/m 0 min 2 min 0,0 UV-I 12 W/m 35,4 km/h (5 Bft)
30.08.2014 19:02 16,9 C 14,4 C 90 % 1014,9 hPa 0,0 l/m 0 min 2 min 0,0 UV-I 12 W/m 38,9 km/h (6 Bft)
30.08.2014 19:04 16,8 C 13,9 C 90 % 1014,8 hPa 0,2 l/m 0 min 2 min 0,0 UV-I 12 W/m 31,7 km/h (5 Bft)
30.08.2014 19:06 16,7 C 13,9 C 90 % 1014,8 hPa 0,2 l/m 0 min 2 min 0,0 UV-I 12 W/m 53,0 km/h (7 Bft)
30.08.2014 19:08 16,6 C 13,9 C 90 % 1014,8 hPa 0,0 l/m 0 min 2 min 0,0 UV-I 12 W/m 38,9 km/h (6 Bft)
30.08.2014 19:10 16,4 C 13,9 C 91 % 1014,8 hPa 0,0 l/m 0 min 2 min 0,0 UV-I 12 W/m 38,9 km/h (6 Bft)
30.08.2014 19:12 16,3 C 13,9 C 91 % 1014,8 hPa 0,0 l/m 0 min 2 min 0,0 UV-I 12 W/m 24,7 km/h (4 Bft)
30.08.2014 19:14 16,2 C 13,9 C 91 % 1014,8 hPa 0,0 l/m 0 min 2 min 0,0 UV-I 13 W/m 28,2 km/h (4 Bft)
30.08.2014 19:16 16,2 C 13,9 C 91 % 1014,8 hPa 0,0 l/m 0 min 0 min 0,0 UV-I 16 W/m 31,7 km/h (5 Bft)
30.08.2014 19:18 16,1 C 13,9 C 91 % 1014,8 hPa 0,0 l/m 0 min 2 min 0,0 UV-I 18 W/m 38,9 km/h (6 Bft)
30.08.2014 19:20 16,0 C 13,9 C 91 % 1014,7 hPa 0,2 l/m 0 min 2 min 0,0 UV-I 19 W/m 24,7 km/h (4 Bft)
30.08.2014 19:22 15,9 C 13,9 C 92 % 1014,7 hPa 0,0 l/m 0 min 2 min 0,0 UV-I 23 W/m 28,2 km/h (4 Bft)
30.08.2014 19:24 15,9 C 13,9 C 92 % 1014,7 hPa 0,2 l/m 0 min 2 min 0,0 UV-I 21 W/m 31,7 km/h (5 Bft)
30.08.2014 19:26 15,8 C 13,9 C 92 % 1014,6 hPa 0,0 l/m 0 min 2 min 0,0 UV-I 18 W/m 31,7 km/h (5 Bft)
30.08.2014 19:28 15,8 C 13,9 C 92 % 1014,6 hPa 0,0 l/m 0 min 0 min 0,0 UV-I 15 W/m 28,2 km/h (4 Bft)
30.08.2014 19:30 15,7 C 13,9 C 92 % 1014,7 hPa 0,0 l/m 0 min 0 min 0,0 UV-I 14 W/m 35,4 km/h (5 Bft)
30.08.2014 19:32 15,7 C 13,9 C 92 % 1014,8 hPa 0,0 l/m 0 min 2 min 0,0 UV-I 12 W/m 38,9 km/h (6 Bft)
30.08.2014 19:34 15,7 C 13,9 C 92 % 1014,8 hPa 0,0 l/m 0 min 0 min 0,0 UV-I 12 W/m 31,7 km/h (5 Bft)
30.08.2014 19:36 15,6 C 13,9 C 92 % 1014,7 hPa 0,0 l/m 0 min 0 min 0,0 UV-I 15 W/m 24,7 km/h (4 Bft)
30.08.2014 19:38 15,6 C 13,9 C 93 % 1014,8 hPa 0,0 l/m 0 min 0 min 0,0 UV-I 19 W/m 31,7 km/h (5 Bft)
30.08.2014 19:40 15,5 C 13,9 C 93 % 1014,7 hPa 0,0 l/m 0 min 0 min 0,0 UV-I 19 W/m 28,2 km/h (4 Bft)
30.08.2014 19:42 15,5 C 13,9 C 93 % 1014,8 hPa 0,0 l/m 0 min 0 min 0,0 UV-I 19 W/m 24,7 km/h (4 Bft)
30.08.2014 19:44 15,4 C 13,9 C 93 % 1014,8 hPa 0,0 l/m 0 min 0 min 0,0 UV-I 20 W/m 28,2 km/h (4 Bft)
30.08.2014 19:46 15,4 C 13,9 C 93 % 1014,8 hPa 0,0 l/m 0 min 0 min 0,0 UV-I 21 W/m 28,2 km/h (4 Bft)
30.08.2014 19:48 15,4 C 13,9 C 93 % 1014,8 hPa 0,0 l/m 0 min 0 min 0,0 UV-I 21 W/m 17,7 km/h (3 Bft)
30.08.2014 19:50 15,4 C 13,9 C 93 % 1014,8 hPa 0,0 l/m 0 min 0 min 0,0 UV-I 19 W/m 31,7 km/h (5 Bft)
30.08.2014 19:52 15,4 C 13,9 C 93 % 1014,8 hPa 0,0 l/m 0 min 0 min 0,0 UV-I 19 W/m 24,7 km/h (4 Bft)
30.08.2014 19:54 15,4 C 13,9 C 93 % 1014,8 hPa 0,0 l/m 0 min 0 min 0,0 UV-I 19 W/m 17,7 km/h (3 Bft)
30.08.2014 19:56 15,4 C 13,9 C 93 % 1014,8 hPa 0,0 l/m 0 min 0 min 0,0 UV-I 18 W/m 17,7 km/h (3 Bft)
30.08.2014 19:58 15,3 C 13,9 C 94 % 1014,8 hPa 0,0 l/m 0 min 0 min 0,0 UV-I 17 W/m 24,7 km/h (4 Bft)
30.08.2014 20:00 15,3 C 13,9 C 94 % 1014,9 hPa 0,0 l/m 0 min 0 min 0,0 UV-I 14 W/m 21,3 km/h (4 Bft)
30.08.2014 20:02 15,3 C 13,9 C 94 % 1014,8 hPa 0,0 l/m 0 min 0 min 0,0 UV-I 11 W/m 14,2 km/h (3 Bft)
30.08.2014 20:04 15,3 C 13,9 C 94 % 1014,9 hPa 0,0 l/m 0 min 0 min 0,0 UV-I 9 W/m 17,7 km/h (3 Bft)
30.08.2014 20:06 15,3 C 13,9 C 94 % 1015,0 hPa 0,0 l/m 0 min 0 min 0,0 UV-I 7 W/m 28,2 km/h (4 Bft)
30.08.2014 20:08 15,3 C 13,9 C 94 % 1015,0 hPa 0,0 l/m 0 min 0 min 0,0 UV-I 7 W/m 17,7 km/h (3 Bft)
30.08.2014 20:10 15,3 C 13,9 C 94 % 1015,0 hPa 0,0 l/m 0 min 0 min 0,0 UV-I 7 W/m 17,7 km/h (3 Bft)
30.08.2014 20:12 15,3 C 13,9 C 94 % 1015,0 hPa 0,0 l/m 0 min 0 min 0,0 UV-I 7 W/m 21,3 km/h (4 Bft)
30.08.2014 20:14 15,3 C 13,9 C 94 % 1015,0 hPa 0,0 l/m 0 min 0 min 0,0 UV-I 7 W/m 14,2 km/h (3 Bft)
30.08.2014 20:16 15,3 C 13,9 C 94 % 1015,1 hPa 0,0 l/m 0 min 0 min 0,0 UV-I 6 W/m 14,2 km/h (3 Bft)
30.08.2014 20:18 15,3 C 13,9 C 94 % 1015,1 hPa 0,0 l/m 0 min 0 min 0,0 UV-I 5 W/m 17,7 km/h (3 Bft)
30.08.2014 20:20 15,3 C 13,9 C 94 % 1015,1 hPa 0,0 l/m 0 min 0 min 0,0 UV-I 0 W/m 17,7 km/h (3 Bft)
30.08.2014 20:22 15,3 C 13,9 C 94 % 1015,2 hPa 0,0 l/m 0 min 0 min 0,0 UV-I 0 W/m 14,2 km/h (3 Bft)
30.08.2014 20:24 15,3 C 13,9 C 95 % 1015,2 hPa 0,0 l/m 0 min 0 min 0,0 UV-I 0 W/m 17,7 km/h (3 Bft)
30.08.2014 20:26 15,3 C 13,9 C 95 % 1015,2 hPa 0,0 l/m 0 min 0 min 0,0 UV-I 0 W/m 3,5 km/h (1 Bft)
30.08.2014 20:28 15,3 C 13,9 C 95 % 1015,2 hPa 0,0 l/m 0 min 0 min 0,0 UV-I 0 W/m 7,1 km/h (2 Bft)
30.08.2014 20:30 15,3 C 13,9 C 95 % 1015,1 hPa 0,0 l/m 0 min 0 min 0,0 UV-I 0 W/m 14,2 km/h (3 Bft)
30.08.2014 20:32 15,3 C 13,9 C 95 % 1015,1 hPa 0,0 l/m 0 min 0 min 0,0 UV-I 0 W/m 14,2 km/h (3 Bft)
30.08.2014 20:34 15,3 C 13,9 C 95 % 1015,2 hPa 0,0 l/m 0 min 0 min 0,0 UV-I 0 W/m 7,1 km/h (2 Bft)
30.08.2014 20:36 15,3 C 13,9 C 95 % 1015,2 hPa 0,0 l/m 0 min 0 min 0,0 UV-I 0 W/m 14,2 km/h (3 Bft)
30.08.2014 20:38 15,3 C 13,9 C 95 % 1015,2 hPa 0,0 l/m 0 min 0 min 0,0 UV-I 0 W/m 3,5 km/h (1 Bft)
30.08.2014 20:40 15,3 C 13,9 C 95 % 1015,2 hPa 0,0 l/m 0 min 0 min 0,0 UV-I 0 W/m 17,7 km/h (3 Bft)
30.08.2014 20:42 15,3 C 13,9 C 95 % 1015,1 hPa 0,0 l/m 0 min 0 min 0,0 UV-I 0 W/m 14,2 km/h (3 Bft)
30.08.2014 20:44 15,3 C 13,9 C 95 % 1015,2 hPa 0,0 l/m 0 min 0 min 0,0 UV-I 0 W/m 10,7 km/h (2 Bft)
30.08.2014 20:46 15,3 C 13,9 C 95 % 1015,2 hPa 0,0 l/m 0 min 0 min 0,0 UV-I 0 W/m 21,3 km/h (4 Bft)
30.08.2014 20:48 15,3 C 13,9 C 95 % 1015,1 hPa 0,0 l/m 0 min 2 min 0,0 UV-I 0 W/m 14,2 km/h (3 Bft)
30.08.2014 20:50 15,3 C 13,9 C 95 % 1015,2 hPa 0,0 l/m 0 min 0 min 0,0 UV-I 0 W/m 21,3 km/h (4 Bft)
30.08.2014 20:52 15,3 C 13,9 C 95 % 1015,3 hPa 0,0 l/m 0 min 0 min 0,0 UV-I 0 W/m 17,7 km/h (3 Bft)
30.08.2014 20:54 15,3 C 13,9 C 95 % 1015,2 hPa 0,0 l/m 0 min 0 min 0,0 UV-I 0 W/m 10,7 km/h (2 Bft)
30.08.2014 20:56 15,3 C 13,9 C 95 % 1015,2 hPa 0,0 l/m 0 min 0 min 0,0 UV-I 0 W/m 14,2 km/h (3 Bft)
30.08.2014 20:58 15,3 C 13,9 C 95 % 1015,3 hPa 0,0 l/m 0 min 0 min 0,0 UV-I 0 W/m 14,2 km/h (3 Bft)
30.08.2014 21:00 15,3 C 13,9 C 95 % 1015,4 hPa 0,0 l/m 0 min 0 min 0,0 UV-I 0 W/m 21,3 km/h (4 Bft)
30.08.2014 21:02 15,3 C 13,9 C 96 % 1015,4 hPa 0,0 l/m 0 min 0 min 0,0 UV-I 0 W/m 10,7 km/h (2 Bft)
30.08.2014 21:04 15,3 C 13,9 C 96 % 1015,4 hPa 0,0 l/m 0 min 0 min 0,0 UV-I 0 W/m 7,1 km/h (2 Bft)
30.08.2014 21:06 15,3 C 13,9 C 96 % 1015,4 hPa 0,0 l/m 0 min 0 min 0,0 UV-I 0 W/m 10,7 km/h (2 Bft)
30.08.2014 21:08 15,3 C 13,9 C 96 % 1015,5 hPa 0,0 l/m 0 min 0 min 0,0 UV-I 0 W/m 14,2 km/h (3 Bft)
30.08.2014 21:10 15,3 C 13,9 C 96 % 1015,5 hPa 0,0 l/m 0 min 0 min 0,0 UV-I 0 W/m 0,0 km/h (0 Bft)
30.08.2014 21:12 15,3 C 13,9 C 96 % 1015,5 hPa 0,0 l/m 0 min 0 min 0,0 UV-I 0 W/m 3,5 km/h (1 Bft)
30.08.2014 21:14 15,3 C 13,9 C 96 % 1015,5 hPa 0,0 l/m 0 min 0 min 0,0 UV-I 0 W/m 0,0 km/h (0 Bft)
30.08.2014 21:16 15,3 C 13,9 C 96 % 1015,5 hPa 0,0 l/m 0 min 0 min 0,0 UV-I 0 W/m 14,2 km/h (3 Bft)
30.08.2014 21:18 15,3 C 13,9 C 96 % 1015,5 hPa 0,0 l/m 0 min 0 min 0,0 UV-I 0 W/m 0,0 km/h (0 Bft)
30.08.2014 21:20 15,3 C 13,9 C 96 % 1015,6 hPa 0,0 l/m 0 min 0 min 0,0 UV-I 0 W/m 10,7 km/h (2 Bft)
30.08.2014 21:22 15,3 C 13,9 C 96 % 1015,6 hPa 0,0 l/m 0 min 0 min 0,0 UV-I 0 W/m 0,0 km/h (0 Bft)
30.08.2014 21:24 15,3 C 13,9 C 96 % 1015,7 hPa 0,0 l/m 0 min 0 min 0,0 UV-I 0 W/m 7,1 km/h (2 Bft)
30.08.2014 21:26 15,3 C 13,9 C 96 % 1015,6 hPa 0,0 l/m 0 min 0 min 0,0 UV-I 0 W/m 7,1 km/h (2 Bft)
30.08.2014 21:28 15,3 C 13,9 C 96 % 1015,6 hPa 0,0 l/m 0 min 0 min 0,0 UV-I 0 W/m 3,5 km/h (1 Bft)
30.08.2014 21:30 15,3 C 13,9 C 96 % 1015,6 hPa 0,0 l/m 0 min 0 min 0,0 UV-I 0 W/m 10,7 km/h (2 Bft)
30.08.2014 21:32 15,3 C 13,9 C 96 % 1015,6 hPa 0,0 l/m 0 min 0 min 0,0 UV-I 0 W/m 14,2 km/h (3 Bft)
30.08.2014 21:34 15,3 C 13,9 C 96 % 1015,6 hPa 0,0 l/m 0 min 0 min 0,0 UV-I 0 W/m 0,0 km/h (0 Bft)
30.08.2014 21:36 15,3 C 13,9 C 96 % 1015,5 hPa 0,0 l/m 0 min 0 min 0,0 UV-I 0 W/m 14,2 km/h (3 Bft)
30.08.2014 21:38 15,3 C 13,9 C 96 % 1015,6 hPa 0,0 l/m 0 min 2 min 0,0 UV-I 0 W/m 17,7 km/h (3 Bft)
30.08.2014 21:40 15,4 C 13,9 C 96 % 1015,6 hPa 0,0 l/m 0 min 2 min 0,0 UV-I 0 W/m 21,3 km/h (4 Bft)
30.08.2014 21:42 15,4 C 13,9 C 96 % 1015,6 hPa 0,0 l/m 0 min 0 min 0,0 UV-I 0 W/m 14,2 km/h (3 Bft)
30.08.2014 21:44 15,4 C 13,9 C 96 % 1015,6 hPa 0,0 l/m 0 min 2 min 0,0 UV-I 0 W/m 17,7 km/h (3 Bft)
30.08.2014 21:46 15,4 C 13,9 C 96 % 1015,6 hPa 0,0 l/m 0 min 0 min 0,0 UV-I 0 W/m 10,7 km/h (2 Bft)
30.08.2014 21:48 15,4 C 13,9 C 96 % 1015,6 hPa 0,0 l/m 0 min 0 min 0,0 UV-I 0 W/m 14,2 km/h (3 Bft)
30.08.2014 21:50 15,4 C 13,9 C 96 % 1015,6 hPa 0,0 l/m 0 min 0 min 0,0 UV-I 0 W/m 7,1 km/h (2 Bft)
30.08.2014 21:52 15,4 C 13,9 C 96 % 1015,6 hPa 0,0 l/m 0 min 0 min 0,0 UV-I 0 W/m 14,2 km/h (3 Bft)
30.08.2014 21:54 15,4 C 13,9 C 96 % 1015,6 hPa 0,0 l/m 0 min 0 min 0,0 UV-I 0 W/m 10,7 km/h (2 Bft)
30.08.2014 21:56 15,4 C 13,9 C 96 % 1015,6 hPa 0,0 l/m 0 min 0 min 0,0 UV-I 0 W/m 7,1 km/h (2 Bft)
30.08.2014 21:58 15,4 C 13,9 C 96 % 1015,6 hPa 0,0 l/m 0 min 0 min 0,0 UV-I 0 W/m 7,1 km/h (2 Bft)
30.08.2014 22:00 15,4 C 13,9 C 96 % 1015,6 hPa 0,0 l/m 0 min 0 min 0,0 UV-I 0 W/m 10,7 km/h (2 Bft)
30.08.2014 22:02 15,3 C 13,9 C 96 % 1015,6 hPa 0,0 l/m 0 min 0 min 0,0 UV-I 0 W/m 14,2 km/h (3 Bft)
30.08.2014 22:04 15,3 C 13,9 C 96 % 1015,6 hPa 0,0 l/m 0 min 0 min 0,0 UV-I 0 W/m 10,7 km/h (2 Bft)
30.08.2014 22:06 15,3 C 13,9 C 96 % 1015,5 hPa 0,0 l/m 0 min 0 min 0,0 UV-I 0 W/m 3,5 km/h (1 Bft)
30.08.2014 22:08 15,3 C 13,9 C 96 % 1015,5 hPa 0,0 l/m 0 min 0 min 0,0 UV-I 0 W/m 0,0 km/h (0 Bft)
30.08.2014 22:10 15,3 C 13,9 C 96 % 1015,6 hPa 0,0 l/m 0 min 0 min 0,0 UV-I 0 W/m 7,1 km/h (2 Bft)
30.08.2014 22:12 15,3 C 13,9 C 96 % 1015,6 hPa 0,0 l/m 0 min 0 min 0,0 UV-I 0 W/m 3,5 km/h (1 Bft)
30.08.2014 22:14 15,3 C 13,9 C 96 % 1015,6 hPa 0,0 l/m 0 min 0 min 0,0 UV-I 0 W/m 7,1 km/h (2 Bft)
30.08.2014 22:16 15,3 C 13,9 C 96 % 1015,6 hPa 0,0 l/m 0 min 0 min 0,0 UV-I 0 W/m 3,5 km/h (1 Bft)
30.08.2014 22:18 15,2 C 13,9 C 96 % 1015,7 hPa 0,0 l/m 0 min 0 min 0,0 UV-I 0 W/m 14,2 km/h (3 Bft)
30.08.2014 22:20 15,2 C 13,9 C 96 % 1015,6 hPa 0,0 l/m 0 min 0 min 0,0 UV-I 0 W/m 14,2 km/h (3 Bft)
30.08.2014 22:22 15,2 C 13,9 C 96 % 1015,7 hPa 0,0 l/m 0 min 0 min 0,0 UV-I 0 W/m 10,7 km/h (2 Bft)
30.08.2014 22:24 15,1 C 13,3 C 96 % 1015,7 hPa 0,0 l/m 0 min 0 min 0,0 UV-I 0 W/m 7,1 km/h (2 Bft)
30.08.2014 22:26 15,1 C 13,3 C 96 % 1015,7 hPa 0,0 l/m 0 min 0 min 0,0 UV-I 0 W/m 0,0 km/h (0 Bft)
30.08.2014 22:28 15,1 C 13,3 C 96 % 1015,8 hPa 0,0 l/m 0 min 0 min 0,0 UV-I 0 W/m 0,0 km/h (0 Bft)
30.08.2014 22:30 15,1 C 13,3 C 96 % 1015,7 hPa 0,0 l/m 0 min 0 min 0,0 UV-I 0 W/m 0,0 km/h (0 Bft)
30.08.2014 22:32 15,1 C 13,3 C 96 % 1015,8 hPa 0,0 l/m 0 min 0 min 0,0 UV-I 0 W/m 0,0 km/h (0 Bft)
30.08.2014 22:34 15,0 C 13,3 C 96 % 1015,8 hPa 0,0 l/m 0 min 0 min 0,0 UV-I 0 W/m 0,0 km/h (0 Bft)
30.08.2014 22:36 15,0 C 13,3 C 96 % 1015,7 hPa 0,0 l/m 0 min 0 min 0,0 UV-I 0 W/m 0,0 km/h (0 Bft)
30.08.2014 22:38 15,0 C 13,3 C 96 % 1015,7 hPa 0,0 l/m 0 min 0 min 0,0 UV-I 0 W/m 7,1 km/h (2 Bft)
30.08.2014 22:40 14,9 C 13,3 C 96 % 1015,7 hPa 0,0 l/m 0 min 0 min 0,0 UV-I 0 W/m 0,0 km/h (0 Bft)
30.08.2014 22:42 14,9 C 13,3 C 96 % 1015,7 hPa 0,0 l/m 0 min 0 min 0,0 UV-I 0 W/m 0,0 km/h (0 Bft)
30.08.2014 22:44 14,9 C 13,3 C 96 % 1015,7 hPa 0,0 l/m 0 min 0 min 0,0 UV-I 0 W/m 0,0 km/h (0 Bft)
30.08.2014 22:46 14,9 C 13,3 C 96 % 1015,7 hPa 0,0 l/m 0 min 0 min 0,0 UV-I 0 W/m 0,0 km/h (0 Bft)
30.08.2014 22:48 14,9 C 13,3 C 96 % 1015,7 hPa 0,0 l/m 0 min 0 min 0,0 UV-I 0 W/m 0,0 km/h (0 Bft)
30.08.2014 22:50 14,8 C 12,8 C 96 % 1015,7 hPa 0,0 l/m 0 min 0 min 0,0 UV-I 0 W/m 0,0 km/h (0 Bft)
30.08.2014 22:52 14,8 C 12,8 C 96 % 1015,7 hPa 0,0 l/m 0 min 0 min 0,0 UV-I 0 W/m 0,0 km/h (0 Bft)
30.08.2014 22:54 14,8 C 12,8 C 96 % 1015,7 hPa 0,0 l/m 0 min 0 min 0,0 UV-I 0 W/m 3,5 km/h (1 Bft)
30.08.2014 22:56 14,8 C 13,3 C 96 % 1015,7 hPa 0,0 l/m 0 min 0 min 0,0 UV-I 0 W/m 0,0 km/h (0 Bft)
30.08.2014 22:58 14,8 C 13,3 C 96 % 1015,6 hPa 0,0 l/m 0 min 0 min 0,0 UV-I 0 W/m 0,0 km/h (0 Bft)
30.08.2014 23:00 14,7 C 12,8 C 96 % 1015,7 hPa 0,0 l/m 0 min 0 min 0,0 UV-I 0 W/m 0,0 km/h (0 Bft)
30.08.2014 23:02 14,7 C 13,3 C 96 % 1015,7 hPa 0,0 l/m 0 min 0 min 0,0 UV-I 0 W/m 0,0 km/h (0 Bft)
30.08.2014 23:04 14,7 C 13,3 C 96 % 1015,8 hPa 0,0 l/m 0 min 0 min 0,0 UV-I 0 W/m 3,5 km/h (1 Bft)
30.08.2014 23:06 14,7 C 13,3 C 96 % 1015,8 hPa 0,0 l/m 0 min 0 min 0,0 UV-I 0 W/m 0,0 km/h (0 Bft)
30.08.2014 23:08 14,7 C 13,3 C 96 % 1015,8 hPa 0,0 l/m 0 min 0 min 0,0 UV-I 0 W/m 0,0 km/h (0 Bft)
30.08.2014 23:10 14,6 C 13,3 C 96 % 1015,8 hPa 0,0 l/m 0 min 0 min 0,0 UV-I 0 W/m 0,0 km/h (0 Bft)
30.08.2014 23:12 14,6 C 13,3 C 96 % 1015,8 hPa 0,0 l/m 0 min 0 min 0,0 UV-I 0 W/m 0,0 km/h (0 Bft)
30.08.2014 23:14 14,6 C 13,3 C 96 % 1015,7 hPa 0,0 l/m 0 min 0 min 0,0 UV-I 0 W/m 3,5 km/h (1 Bft)
30.08.2014 23:16 14,6 C 13,3 C 96 % 1015,8 hPa 0,0 l/m 0 min 0 min 0,0 UV-I 0 W/m 0,0 km/h (0 Bft)
30.08.2014 23:18 14,6 C 13,3 C 96 % 1015,7 hPa 0,0 l/m 0 min 0 min 0,0 UV-I 0 W/m 10,7 km/h (2 Bft)
30.08.2014 23:20 14,6 C 13,3 C 96 % 1015,7 hPa 0,0 l/m 0 min 0 min 0,0 UV-I 0 W/m 10,7 km/h (2 Bft)
30.08.2014 23:22 14,5 C 13,3 C 96 % 1015,7 hPa 0,0 l/m 0 min 0 min 0,0 UV-I 0 W/m 0,0 km/h (0 Bft)
30.08.2014 23:24 14,5 C 12,8 C 96 % 1015,7 hPa 0,0 l/m 0 min 0 min 0,0 UV-I 0 W/m 0,0 km/h (0 Bft)
30.08.2014 23:26 14,5 C 12,8 C 96 % 1015,6 hPa 0,0 l/m 0 min 0 min 0,0 UV-I 0 W/m 0,0 km/h (0 Bft)
30.08.2014 23:28 14,5 C 12,8 C 96 % 1015,6 hPa 0,0 l/m 0 min 0 min 0,0 UV-I 0 W/m 3,5 km/h (1 Bft)
30.08.2014 23:30 14,4 C 12,8 C 96 % 1015,5 hPa 0,0 l/m 0 min 0 min 0,0 UV-I 0 W/m 0,0 km/h (0 Bft)
30.08.2014 23:32 14,4 C 12,8 C 96 % 1015,6 hPa 0,0 l/m 0 min 0 min 0,0 UV-I 0 W/m 10,7 km/h (2 Bft)
30.08.2014 23:34 14,4 C 12,8 C 96 % 1015,7 hPa 0,0 l/m 0 min 0 min 0,0 UV-I 0 W/m 10,7 km/h (2 Bft)
30.08.2014 23:36 14,4 C 12,8 C 96 % 1015,6 hPa 0,0 l/m 0 min 0 min 0,0 UV-I 0 W/m 0,0 km/h (0 Bft)
30.08.2014 23:38 14,4 C 12,8 C 96 % 1015,6 hPa 0,0 l/m 0 min 0 min 0,0 UV-I 0 W/m 0,0 km/h (0 Bft)
30.08.2014 23:40 14,4 C 12,8 C 96 % 1015,6 hPa 0,0 l/m 0 min 0 min 0,0 UV-I 0 W/m 3,5 km/h (1 Bft)
30.08.2014 23:42 14,3 C 12,8 C 96 % 1015,7 hPa 0,0 l/m 0 min 0 min 0,0 UV-I 0 W/m 0,0 km/h (0 Bft)
30.08.2014 23:44 14,3 C 12,8 C 96 % 1015,7 hPa 0,0 l/m 0 min 0 min 0,0 UV-I 0 W/m 10,7 km/h (2 Bft)
30.08.2014 23:46 14,3 C 12,8 C 96 % 1015,6 hPa 0,0 l/m 0 min 0 min 0,0 UV-I 0 W/m 0,0 km/h (0 Bft)
30.08.2014 23:48 14,3 C 12,8 C 96 % 1015,6 hPa 0,0 l/m 0 min 0 min 0,0 UV-I 0 W/m 0,0 km/h (0 Bft)
30.08.2014 23:50 14,3 C 12,8 C 96 % 1015,7 hPa 0,0 l/m 0 min 0 min 0,0 UV-I 0 W/m 0,0 km/h (0 Bft)
30.08.2014 23:52 14,2 C 12,8 C 96 % 1015,7 hPa 0,0 l/m 0 min 0 min 0,0 UV-I 0 W/m 0,0 km/h (0 Bft)
30.08.2014 23:54 14,2 C 12,8 C 96 % 1015,7 hPa 0,0 l/m 0 min 0 min 0,0 UV-I 0 W/m 0,0 km/h (0 Bft)
30.08.2014 23:56 14,2 C 12,8 C 96 % 1015,7 hPa 0,0 l/m 0 min 0 min 0,0 UV-I 0 W/m 10,7 km/h (2 Bft)
30.08.2014 23:58 14,2 C 12,8 C 96 % 1015,6 hPa 0,0 l/m 0 min 0 min 0,0 UV-I 0 W/m 0,0 km/h (0 Bft)
_ Min-Zeit 23:52 22:50 15:58 19:26 - - - - - 21:10
Minimum _ 14,2 C 12,8 C 80 % 1014,6 hPa - - - - - 0,0 km/h (0 Bft)
_ Max-Zeit 15:48 15:10 21:02 01:30 18:36 11:06 09:24 15:40 15:40 13:14
Maximum _ 19,8 C 19,4 C 96 % 1016,4 hPa 0,8 l/m 2 min 2 min 2,1 UV-I 490 W/m 74,2 km/h
W-NW (8 Bft)
Durchschnitt _ 16,7 C 15,3 C 87 % 1015,7 hPa #3,8 l/m #18 min. #1:38 h 0,9 UV-I 112 W/m 28,5 km/h (4 Bft)
© 2014 W. Hausmann